Time,TemperatureF,DewpointF,PressureIn,WindDirection,WindDirectionDegrees,WindSpeedMPH,WindSpeedGustMPH,Humidity,HourlyPrecipIn,Conditions,Clouds,dailyrainin,SolarRadiationWatts/m^2,SoftwareType,DateUTC
2013-04-22 00:01:00,53.2,15.3,30.08,WNW,287,3.5,3.5,22,0.00,CLR,,0.00,0.0,WeatherDisplay:10.37,2013-04-22 06:01:00,
2013-04-22 00:02:00,53.2,15.3,30.08,WNW,287,3.5,3.5,22,0.00,CLR,,0.00,0.0,WeatherDisplay:10.37,2013-04-22 06:02:00,
2013-04-22 00:03:00,53.1,15.2,30.08,WNW,287,3.5,3.5,22,0.00,CLR,,0.00,0.0,WeatherDisplay:10.37,2013-04-22 06:03:00,
2013-04-22 00:04:00,53.0,15.1,30.08,WNW,287,3.5,3.5,22,0.00,CLR,,0.00,0.0,WeatherDisplay:10.37,2013-04-22 06:04:00,
2013-04-22 00:05:00,53.0,15.1,30.08,WNW,287,3.5,3.5,22,0.00,CLR,,0.00,0.0,WeatherDisplay:10.37,2013-04-22 06:05:00,
2013-04-22 00:08:00,53.0,15.1,30.08,WNW,287,3.5,3.5,22,0.00,CLR,,0.00,0.0,WeatherDisplay:10.37,2013-04-22 06:08:00,
2013-04-22 00:09:00,53.0,15.1,30.08,WNW,287,3.5,3.5,22,0.00,CLR,,0.00,0.0,WeatherDisplay:10.37,2013-04-22 06:09:00,
2013-04-22 00:11:00,52.9,15.0,30.08,WNW,287,3.5,3.5,22,0.00,CLR,,0.00,0.0,WeatherDisplay:10.37,2013-04-22 06:11:00,
2013-04-22 00:12:00,52.8,14.9,30.08,WNW,287,2.3,2.3,22,0.00,CLR,,0.00,0.0,WeatherDisplay:10.37,2013-04-22 06:12:00,
2013-04-22 00:14:00,52.7,14.9,30.07,WNW,287,3.5,3.5,22,0.00,CLR,,0.00,0.0,WeatherDisplay:10.37,2013-04-22 06:14:00,
2013-04-22 00:16:00,52.7,14.9,30.07,WNW,299,3.5,3.5,22,0.00,CLR,,0.00,0.0,WeatherDisplay:10.37,2013-04-22 06:16:00,
2013-04-22 00:17:00,52.7,14.9,30.07,WNW,299,3.5,3.5,22,0.00,CLR,,0.00,0.0,WeatherDisplay:10.37,2013-04-22 06:17:00,
2013-04-22 00:18:00,52.8,14.9,30.07,NW,307,3.5,3.5,22,0.00,CLR,,0.00,0.0,WeatherDisplay:10.37,2013-04-22 06:18:00,
2013-04-22 00:20:00,52.9,15.0,30.07,NW,304,3.5,3.5,22,0.00,CLR,,0.00,0.0,WeatherDisplay:10.37,2013-04-22 06:20:00,
2013-04-22 00:22:00,53.0,15.1,30.07,WNW,298,4.0,4.0,22,0.00,CLR,,0.00,0.0,WeatherDisplay:10.37,2013-04-22 06:22:00,
2013-04-22 00:26:00,52.9,15.0,30.07,WNW,295,3.5,3.7,22,0.00,CLR,,0.00,0.0,WeatherDisplay:10.37,2013-04-22 06:26:00,
2013-04-22 00:28:00,52.8,13.9,30.07,WNW,292,3.5,4.0,21,0.00,CLR,,0.00,0.0,WeatherDisplay:10.37,2013-04-22 06:28:00,
2013-04-22 00:30:00,52.8,14.9,30.07,WNW,286,3.5,3.6,22,0.00,CLR,,0.00,0.0,WeatherDisplay:10.37,2013-04-22 06:30:00,
2013-04-22 00:31:00,52.7,13.8,30.07,WNW,286,4.6,4.6,21,0.00,CLR,,0.00,0.0,WeatherDisplay:10.37,2013-04-22 06:31:00,
2013-04-22 00:33:00,52.8,14.9,30.07,WNW,287,4.0,4.0,22,0.00,CLR,,0.00,0.0,WeatherDisplay:10.37,2013-04-22 06:33:00,
2013-04-22 00:34:00,52.8,14.9,30.07,WNW,287,4.6,4.6,22,0.00,CLR,,0.00,0.0,WeatherDisplay:10.37,2013-04-22 06:34:00,
2013-04-22 00:35:00,52.8,14.9,30.07,WNW,287,4.6,4.6,22,0.00,CLR,,0.00,0.0,WeatherDisplay:10.37,2013-04-22 06:35:00,
2013-04-22 00:37:00,52.8,14.9,30.07,WNW,288,3.5,3.5,22,0.00,CLR,,0.00,0.0,WeatherDisplay:10.37,2013-04-22 06:37:00,
2013-04-22 00:38:00,52.8,14.9,30.07,WNW,288,3.5,3.5,22,0.00,CLR,,0.00,0.0,WeatherDisplay:10.37,2013-04-22 06:38:00,
2013-04-22 00:41:00,52.8,14.9,30.07,WNW,294,3.5,3.5,22,0.00,CLR,,0.00,0.0,WeatherDisplay:10.37,2013-04-22 06:41:00,
2013-04-22 00:42:00,52.7,14.9,30.07,WNW,293,4.6,4.6,22,0.00,CLR,,0.00,0.0,WeatherDisplay:10.37,2013-04-22 06:42:00,
2013-04-22 00:46:00,52.5,14.7,30.07,West,279,3.5,3.5,22,0.00,CLR,,0.00,0.0,WeatherDisplay:10.37,2013-04-22 06:46:00,
2013-04-22 00:47:00,52.5,14.7,30.07,West,279,3.5,3.5,22,0.00,CLR,,0.00,0.0,WeatherDisplay:10.37,2013-04-22 06:47:00,
2013-04-22 00:49:00,52.4,14.6,30.07,West,279,2.3,2.3,22,0.00,CLR,,0.00,0.0,WeatherDisplay:10.37,2013-04-22 06:49:00,
2013-04-22 00:50:00,52.4,14.6,30.07,West,279,2.3,2.3,22,0.00,CLR,,0.00,0.0,WeatherDisplay:10.37,2013-04-22 06:50:00,
2013-04-22 00:51:00,52.3,14.5,30.07,West,276,3.5,3.5,22,0.00,CLR,,0.00,0.0,WeatherDisplay:10.37,2013-04-22 06:51:00,
2013-04-22 00:52:00,52.2,14.4,30.07,West,273,4.6,4.6,22,0.00,CLR,,0.00,0.0,WeatherDisplay:10.37,2013-04-22 06:52:00,
2013-04-22 00:53:00,52.2,14.4,30.07,West,273,2.3,2.3,22,0.00,CLR,,0.00,0.0,WeatherDisplay:10.37,2013-04-22 06:53:00,
2013-04-22 00:56:00,52.1,14.4,30.07,West,273,2.3,2.3,22,0.00,CLR,,0.00,0.0,WeatherDisplay:10.37,2013-04-22 06:56:00,
2013-04-22 00:57:00,52.0,14.3,30.07,West,273,3.5,3.5,22,0.00,CLR,,0.00,0.0,WeatherDisplay:10.37,2013-04-22 06:57:00,
2013-04-22 00:59:00,51.7,15.0,30.07,WSW,258,3.5,3.5,23,0.00,CLR,,0.00,0.0,WeatherDisplay:10.37,2013-04-22 06:59:00,
2013-04-22 01:02:00,51.5,15.8,30.07,WSW,258,3.5,3.5,24,0.00,CLR,,0.00,0.0,WeatherDisplay:10.37,2013-04-22 07:02:00,
2013-04-22 01:04:00,51.4,15.8,30.08,WSW,255,4.0,4.0,24,0.00,CLR,,0.00,0.0,WeatherDisplay:10.37,2013-04-22 07:04:00,
2013-04-22 01:08:00,51.3,15.7,30.08,WSW,249,5.8,5.8,24,0.00,CLR,,0.00,0.0,WeatherDisplay:10.37,2013-04-22 07:08:00,
2013-04-22 01:09:00,51.3,15.7,30.07,WSW,249,5.8,5.8,24,0.00,CLR,,0.00,0.0,WeatherDisplay:10.37,2013-04-22 07:09:00,
2013-04-22 01:10:00,51.2,15.6,30.08,WSW,249,6.0,6.0,24,0.00,CLR,,0.00,0.0,WeatherDisplay:10.37,2013-04-22 07:10:00,
2013-04-22 01:14:00,51.2,14.6,30.08,WSW,258,3.5,3.5,23,0.00,CLR,,0.00,0.0,WeatherDisplay:10.37,2013-04-22 07:14:00,
2013-04-22 01:16:00,51.2,14.6,30.08,West,262,3.5,3.5,23,0.00,CLR,,0.00,0.0,WeatherDisplay:10.37,2013-04-22 07:16:00,
2013-04-22 01:19:00,51.5,14.9,30.08,WSW,258,5.8,5.8,23,0.00,CLR,,0.00,0.0,WeatherDisplay:10.37,2013-04-22 07:19:00,
2013-04-22 01:20:00,51.5,14.9,30.08,West,268,4.6,4.6,23,0.00,CLR,,0.00,0.0,WeatherDisplay:10.37,2013-04-22 07:20:00,
2013-04-22 01:21:00,51.6,15.0,30.07,West,268,3.5,3.5,23,0.00,CLR,,0.00,0.0,WeatherDisplay:10.37,2013-04-22 07:21:00,
2013-04-22 01:22:00,51.6,15.0,30.08,West,268,3.5,3.5,23,0.00,CLR,,0.00,0.0,WeatherDisplay:10.37,2013-04-22 07:22:00,
2013-04-22 01:25:00,51.5,15.8,30.07,West,272,4.0,4.0,24,0.00,CLR,,0.00,0.0,WeatherDisplay:10.37,2013-04-22 07:25:00,
2013-04-22 01:27:00,51.4,15.8,30.07,West,272,3.5,3.5,24,0.00,CLR,,0.00,0.0,WeatherDisplay:10.37,2013-04-22 07:27:00,
2013-04-22 01:28:00,51.4,15.8,30.07,West,278,3.5,3.5,24,0.00,CLR,,0.00,0.0,WeatherDisplay:10.37,2013-04-22 07:28:00,
2013-04-22 01:30:00,51.4,15.8,30.07,WNW,289,4.6,4.6,24,0.00,CLR,,0.00,0.0,WeatherDisplay:10.37,2013-04-22 07:30:00,
2013-04-22 01:33:00,51.3,15.7,30.07,West,279,4.6,4.6,24,0.00,CLR,,0.00,0.0,WeatherDisplay:10.37,2013-04-22 07:33:00,
2013-04-22 01:34:00,51.2,14.6,30.07,WNW,290,3.5,3.5,23,0.00,CLR,,0.00,0.0,WeatherDisplay:10.37,2013-04-22 07:34:00,
2013-04-22 01:35:00,51.1,14.5,30.07,WNW,283,3.5,3.5,23,0.00,CLR,,0.00,0.0,WeatherDisplay:10.37,2013-04-22 07:35:00,
2013-04-22 01:38:00,50.6,14.1,30.07,West,271,4.6,4.6,23,0.00,CLR,,0.00,0.0,WeatherDisplay:10.37,2013-04-22 07:38:00,
2013-04-22 01:40:00,50.3,13.9,30.07,West,266,3.5,3.5,23,0.00,CLR,,0.00,0.0,WeatherDisplay:10.37,2013-04-22 07:40:00,
2013-04-22 01:41:00,50.1,13.7,30.08,SW,231,4.6,4.6,23,0.00,CLR,,0.00,0.0,WeatherDisplay:10.37,2013-04-22 07:41:00,
2013-04-22 01:43:00,49.9,14.5,30.08,East,101,4.6,4.6,24,0.00,CLR,,0.00,0.0,WeatherDisplay:10.37,2013-04-22 07:43:00,
2013-04-22 01:44:00,49.9,15.4,30.08,East,101,3.5,3.5,25,0.00,CLR,,0.00,0.0,WeatherDisplay:10.37,2013-04-22 07:44:00,
2013-04-22 01:49:00,49.8,15.3,30.07,SW,222,2.3,2.3,25,0.00,CLR,,0.00,0.0,WeatherDisplay:10.37,2013-04-22 07:49:00,
2013-04-22 01:50:00,49.8,15.3,30.07,SW,234,3.5,3.5,25,0.00,CLR,,0.00,0.0,WeatherDisplay:10.37,2013-04-22 07:50:00,
2013-04-22 01:51:00,49.8,15.3,30.07,WSW,255,3.5,3.5,25,0.00,CLR,,0.00,0.0,WeatherDisplay:10.37,2013-04-22 07:51:00,
2013-04-22 01:52:00,49.9,15.4,30.07,West,275,3.5,3.5,25,0.00,CLR,,0.00,0.0,WeatherDisplay:10.37,2013-04-22 07:52:00,
2013-04-22 01:53:00,50.0,15.5,30.07,West,279,3.5,3.5,25,0.00,CLR,,0.00,0.0,WeatherDisplay:10.37,2013-04-22 07:53:00,
2013-04-22 01:55:00,50.0,15.5,30.07,West,270,4.6,4.6,25,0.00,CLR,,0.00,0.0,WeatherDisplay:10.37,2013-04-22 07:55:00,
2013-04-22 01:58:00,49.9,14.5,30.07,WSW,258,3.5,3.5,24,0.00,CLR,,0.00,0.0,WeatherDisplay:10.37,2013-04-22 07:58:00,
2013-04-22 02:00:00,49.9,15.4,30.07,WSW,258,3.5,3.5,25,0.00,CLR,,0.00,0.0,WeatherDisplay:10.37,2013-04-22 08:00:00,
2013-04-22 02:04:00,49.6,15.2,30.07,SE,137,3.5,3.5,25,0.00,CLR,,0.00,0.0,WeatherDisplay:10.37,2013-04-22 08:04:00,
2013-04-22 02:06:00,49.4,15.0,30.07,East,90,3.5,3.5,25,0.00,CLR,,0.00,0.0,WeatherDisplay:10.37,2013-04-22 08:06:00,
2013-04-22 02:07:00,49.4,15.0,30.07,East,88,4.6,4.6,25,0.00,CLR,,0.00,0.0,WeatherDisplay:10.37,2013-04-22 08:07:00,
2013-04-22 02:08:00,49.4,15.0,30.07,East,96,3.5,3.5,25,0.00,CLR,,0.00,0.0,WeatherDisplay:10.37,2013-04-22 08:08:00,
2013-04-22 02:10:00,49.4,15.0,30.07,East,96,2.3,2.3,25,0.00,CLR,,0.00,0.0,WeatherDisplay:10.37,2013-04-22 08:10:00,
2013-04-22 02:11:00,49.5,15.1,30.07,East,96,2.3,2.3,25,0.00,CLR,,0.00,0.0,WeatherDisplay:10.37,2013-04-22 08:11:00,
2013-04-22 02:12:00,49.6,15.2,30.07,ESE,104,3.5,3.5,25,0.00,CLR,,0.00,0.0,WeatherDisplay:10.37,2013-04-22 08:12:00,
2013-04-22 02:14:00,49.8,15.3,30.07,ESE,104,3.5,3.5,25,0.00,CLR,,0.00,0.0,WeatherDisplay:10.37,2013-04-22 08:14:00,
2013-04-22 02:15:00,49.8,15.3,30.07,ESE,104,3.5,3.5,25,0.00,CLR,,0.00,0.0,WeatherDisplay:10.37,2013-04-22 08:15:00,
2013-04-22 02:16:00,49.9,15.4,30.07,ESE,104,3.5,3.5,25,0.00,CLR,,0.00,0.0,WeatherDisplay:10.37,2013-04-22 08:16:00,
2013-04-22 02:17:00,49.8,15.3,30.07,ESE,104,2.3,2.3,25,0.00,CLR,,0.00,0.0,WeatherDisplay:10.37,2013-04-22 08:17:00,
2013-04-22 02:20:00,49.5,16.0,30.07,ESE,104,1.1,1.1,26,0.00,CLR,,0.00,0.0,WeatherDisplay:10.37,2013-04-22 08:20:00,
2013-04-22 02:21:00,49.3,15.8,30.07,ESE,104,0.0,0.0,26,0.00,CLR,,0.00,0.0,WeatherDisplay:10.37,2013-04-22 08:21:00,
2013-04-22 02:22:00,49.3,15.8,30.07,ESE,104,1.1,1.1,26,0.00,CLR,,0.00,0.0,WeatherDisplay:10.37,2013-04-22 08:22:00,
2013-04-22 02:25:00,48.9,16.3,30.07,ESE,104,0.0,0.0,27,0.00,CLR,,0.00,0.0,WeatherDisplay:10.37,2013-04-22 08:25:00,
2013-04-22 02:26:00,48.8,16.2,30.07,ESE,104,0.0,0.0,27,0.00,CLR,,0.00,0.0,WeatherDisplay:10.37,2013-04-22 08:26:00,
2013-04-22 02:29:00,48.6,16.1,30.07,ESE,104,0.0,0.0,27,0.00,CLR,,0.00,0.0,WeatherDisplay:10.37,2013-04-22 08:29:00,
2013-04-22 02:31:00,48.5,16.0,30.07,ESE,104,2.3,2.3,27,0.00,CLR,,0.00,0.0,WeatherDisplay:10.37,2013-04-22 08:31:00,
2013-04-22 02:32:00,48.5,16.0,30.07,ESE,104,2.3,2.3,27,0.00,CLR,,0.00,0.0,WeatherDisplay:10.37,2013-04-22 08:32:00,
2013-04-22 02:33:00,48.5,16.0,30.07,ESE,104,2.3,2.3,27,0.00,CLR,,0.00,0.0,WeatherDisplay:10.37,2013-04-22 08:33:00,
2013-04-22 02:34:00,48.5,15.1,30.07,ESE,104,2.3,2.3,26,0.00,CLR,,0.00,0.0,WeatherDisplay:10.37,2013-04-22 08:34:00,
2013-04-22 02:35:00,48.6,15.2,30.06,ESE,104,2.3,2.3,26,0.00,CLR,,0.00,0.0,WeatherDisplay:10.37,2013-04-22 08:35:00,
2013-04-22 02:37:00,48.8,15.4,30.06,ESE,104,1.1,1.1,26,0.00,CLR,,0.00,0.0,WeatherDisplay:10.37,2013-04-22 08:37:00,
2013-04-22 02:38:00,48.9,15.5,30.07,ESE,104,1.1,1.1,26,0.00,CLR,,0.00,0.0,WeatherDisplay:10.37,2013-04-22 08:38:00,
2013-04-22 02:41:00,48.7,15.3,30.06,ESE,104,1.1,1.1,26,0.00,CLR,,0.00,0.0,WeatherDisplay:10.37,2013-04-22 08:41:00,
2013-04-22 02:43:00,48.6,15.2,30.06,ESE,104,2.3,2.3,26,0.00,CLR,,0.00,0.0,WeatherDisplay:10.37,2013-04-22 08:43:00,
2013-04-22 02:44:00,48.4,15.0,30.06,South,187,3.5,3.5,26,0.00,CLR,,0.00,0.0,WeatherDisplay:10.37,2013-04-22 08:44:00,
2013-04-22 02:45:00,48.3,15.0,30.06,South,187,3.5,3.5,26,0.00,CLR,,0.00,0.0,WeatherDisplay:10.37,2013-04-22 08:45:00,
2013-04-22 02:46:00,48.2,14.9,30.06,South,187,2.3,2.3,26,0.00,CLR,,0.00,0.0,WeatherDisplay:10.37,2013-04-22 08:46:00,
2013-04-22 02:48:00,48.3,15.8,30.06,South,187,2.3,2.3,27,0.00,CLR,,0.00,0.0,WeatherDisplay:10.37,2013-04-22 08:48:00,
2013-04-22 02:51:00,48.2,15.7,30.06,South,187,2.3,2.3,27,0.00,CLR,,0.00,0.0,WeatherDisplay:10.37,2013-04-22 08:51:00,
2013-04-22 02:53:00,47.9,15.5,30.07,South,187,3.0,3.0,27,0.00,CLR,,0.00,0.0,WeatherDisplay:10.37,2013-04-22 08:53:00,
2013-04-22 02:54:00,47.8,15.4,30.07,South,191,3.5,3.5,27,0.00,CLR,,0.00,0.0,WeatherDisplay:10.37,2013-04-22 08:54:00,
2013-04-22 02:55:00,47.7,16.1,30.07,SSW,205,3.5,3.5,28,0.00,CLR,,0.00,0.0,WeatherDisplay:10.37,2013-04-22 08:55:00,
2013-04-22 02:56:00,47.7,16.1,30.07,SSW,210,3.5,3.5,28,0.00,CLR,,0.00,0.0,WeatherDisplay:10.37,2013-04-22 08:56:00,
2013-04-22 02:58:00,47.6,16.1,30.07,SSW,210,3.5,3.5,28,0.00,CLR,,0.00,0.0,WeatherDisplay:10.37,2013-04-22 08:58:00,
2013-04-22 02:59:00,47.6,16.1,30.07,SSW,210,2.3,2.3,28,0.00,CLR,,0.00,0.0,WeatherDisplay:10.37,2013-04-22 08:59:00,
2013-04-22 03:00:00,47.5,16.0,30.07,SSW,210,2.3,2.3,28,0.00,CLR,,0.00,0.0,WeatherDisplay:10.37,2013-04-22 09:00:00,
2013-04-22 03:01:00,47.6,16.1,30.07,SSW,210,2.3,2.3,28,0.00,CLR,,0.00,0.0,WeatherDisplay:10.37,2013-04-22 09:01:00,
2013-04-22 03:04:00,47.6,16.1,30.07,SSW,210,3.5,3.5,28,0.00,CLR,,0.00,0.0,WeatherDisplay:10.37,2013-04-22 09:04:00,
2013-04-22 03:06:00,47.6,16.1,30.06,SSW,210,2.3,2.3,28,0.00,CLR,,0.00,0.0,WeatherDisplay:10.37,2013-04-22 09:06:00,
2013-04-22 03:09:00,47.3,15.8,30.07,SSW,210,3.5,3.5,28,0.00,CLR,,0.00,0.0,WeatherDisplay:10.37,2013-04-22 09:09:00,
2013-04-22 03:10:00,47.3,15.8,30.07,SSW,210,3.5,3.5,28,0.00,CLR,,0.00,0.0,WeatherDisplay:10.37,2013-04-22 09:10:00,
2013-04-22 03:11:00,47.3,15.8,30.07,SW,215,3.5,3.5,28,0.00,CLR,,0.00,0.0,WeatherDisplay:10.37,2013-04-22 09:11:00,
2013-04-22 03:15:00,47.2,14.9,30.06,SW,215,3.5,3.5,27,0.00,CLR,,0.00,0.0,WeatherDisplay:10.37,2013-04-22 09:15:00,
2013-04-22 03:16:00,47.2,14.9,30.06,SW,215,1.1,1.1,27,0.00,CLR,,0.00,0.0,WeatherDisplay:10.37,2013-04-22 09:16:00,
2013-04-22 03:17:00,47.1,14.8,30.06,SW,215,1.1,1.1,27,0.00,CLR,,0.00,0.0,WeatherDisplay:10.37,2013-04-22 09:17:00,
2013-04-22 03:20:00,47.1,14.8,30.06,SW,215,1.1,1.5,27,0.00,CLR,,0.00,0.0,WeatherDisplay:10.37,2013-04-22 09:20:00,
2013-04-22 03:21:00,47.0,14.7,30.06,SW,215,2.3,2.3,27,0.00,CLR,,0.00,0.0,WeatherDisplay:10.37,2013-04-22 09:21:00,
2013-04-22 03:26:00,46.8,14.5,30.06,SW,215,2.3,2.3,27,0.00,CLR,,0.00,0.0,WeatherDisplay:10.37,2013-04-22 09:26:00,
2013-04-22 03:27:00,46.8,14.5,30.06,SW,215,1.1,1.1,27,0.00,CLR,,0.00,0.0,WeatherDisplay:10.37,2013-04-22 09:27:00,
2013-04-22 03:28:00,46.7,15.3,30.06,SW,215,2.3,2.3,28,0.00,CLR,,0.00,0.0,WeatherDisplay:10.37,2013-04-22 09:28:00,
2013-04-22 03:30:00,46.7,14.4,30.06,SW,215,1.1,1.1,27,0.00,CLR,,0.00,0.0,WeatherDisplay:10.37,2013-04-22 09:30:00,
2013-04-22 03:32:00,46.5,15.1,30.06,SW,215,2.3,2.3,28,0.00,CLR,,0.00,0.0,WeatherDisplay:10.37,2013-04-22 09:32:00,
2013-04-22 03:33:00,46.4,15.0,30.06,SW,215,2.3,2.3,28,0.00,CLR,,0.00,0.0,WeatherDisplay:10.37,2013-04-22 09:33:00,
2013-04-22 03:35:00,46.3,14.9,30.06,SW,215,2.3,2.3,28,0.00,CLR,,0.00,0.0,WeatherDisplay:10.37,2013-04-22 09:35:00,
2013-04-22 03:36:00,46.2,14.8,30.06,SW,215,3.5,3.5,28,0.00,CLR,,0.00,0.0,WeatherDisplay:10.37,2013-04-22 09:36:00,
2013-04-22 03:37:00,46.1,14.8,30.06,SW,215,3.5,3.5,28,0.00,CLR,,0.00,0.0,WeatherDisplay:10.37,2013-04-22 09:37:00,
2013-04-22 03:39:00,46.2,14.8,30.06,SW,215,3.5,3.5,28,0.00,CLR,,0.00,0.0,WeatherDisplay:10.37,2013-04-22 09:39:00,
2013-04-22 03:41:00,46.3,14.9,30.06,SW,215,2.3,2.3,28,0.00,CLR,,0.00,0.0,WeatherDisplay:10.37,2013-04-22 09:41:00,
2013-04-22 03:43:00,46.3,14.9,30.06,SW,215,1.1,1.1,28,0.00,CLR,,0.00,0.0,WeatherDisplay:10.37,2013-04-22 09:43:00,
2013-04-22 03:45:00,46.2,14.8,30.06,SW,215,2.3,2.3,28,0.00,CLR,,0.00,0.0,WeatherDisplay:10.37,2013-04-22 09:45:00,
2013-04-22 03:46:00,46.2,15.6,30.06,SW,215,2.3,2.3,29,0.00,CLR,,0.00,0.0,WeatherDisplay:10.37,2013-04-22 09:46:00,
2013-04-22 03:48:00,46.1,15.6,30.06,SW,215,2.3,2.3,29,0.00,CLR,,0.00,0.0,WeatherDisplay:10.37,2013-04-22 09:48:00,
2013-04-22 03:49:00,46.1,15.6,30.06,SW,215,2.3,2.3,29,0.00,CLR,,0.00,0.0,WeatherDisplay:10.37,2013-04-22 09:49:00,
2013-04-22 03:50:00,46.1,15.6,30.06,SW,215,2.3,2.3,29,0.00,CLR,,0.00,0.0,WeatherDisplay:10.37,2013-04-22 09:50:00,
2013-04-22 03:52:00,46.0,15.5,30.06,SW,215,0.0,0.0,29,0.00,CLR,,0.00,0.0,WeatherDisplay:10.37,2013-04-22 09:52:00,
2013-04-22 03:53:00,45.8,16.1,30.06,SW,215,0.0,0.0,30,0.00,CLR,,0.00,0.0,WeatherDisplay:10.37,2013-04-22 09:53:00,
2013-04-22 03:55:00,45.6,15.9,30.06,SW,215,0.0,0.0,30,0.00,CLR,,0.00,0.0,WeatherDisplay:10.37,2013-04-22 09:55:00,
2013-04-22 03:57:00,45.7,16.0,30.06,SW,215,0.0,0.0,30,0.00,CLR,,0.00,0.0,WeatherDisplay:10.37,2013-04-22 09:57:00,
2013-04-22 03:58:00,45.6,15.9,30.06,SW,215,0.0,0.0,30,0.00,CLR,,0.00,0.0,WeatherDisplay:10.37,2013-04-22 09:58:00,
2013-04-22 04:00:00,45.5,15.8,30.07,SW,215,0.0,0.0,30,0.00,CLR,,0.00,0.0,WeatherDisplay:10.37,2013-04-22 10:00:00,
2013-04-22 04:02:00,45.3,16.4,30.07,SW,223,3.5,3.5,31,0.00,CLR,,0.00,0.0,WeatherDisplay:10.37,2013-04-22 10:02:00,
2013-04-22 04:03:00,45.3,16.4,30.07,SW,223,3.5,3.5,31,0.00,CLR,,0.00,0.0,WeatherDisplay:10.37,2013-04-22 10:03:00,
2013-04-22 04:06:00,45.2,16.3,30.07,SW,223,2.3,2.3,31,0.00,CLR,,0.00,0.0,WeatherDisplay:10.37,2013-04-22 10:06:00,
2013-04-22 04:07:00,45.2,17.0,30.07,SW,223,1.1,1.1,32,0.00,CLR,,0.00,0.0,WeatherDisplay:10.37,2013-04-22 10:07:00,
2013-04-22 04:08:00,45.1,17.0,30.06,SW,223,2.3,2.3,32,0.00,CLR,,0.00,0.0,WeatherDisplay:10.37,2013-04-22 10:08:00,
2013-04-22 04:12:00,44.9,16.8,30.07,SW,223,2.3,2.3,32,0.00,CLR,,0.00,0.0,WeatherDisplay:10.37,2013-04-22 10:12:00,
2013-04-22 04:13:00,44.9,16.8,30.06,SW,223,1.1,1.1,32,0.00,CLR,,0.00,0.0,WeatherDisplay:10.37,2013-04-22 10:13:00,
2013-04-22 04:14:00,44.8,16.0,30.06,SW,223,2.3,2.3,31,0.00,CLR,,0.00,0.0,WeatherDisplay:10.37,2013-04-22 10:14:00,
2013-04-22 04:17:00,44.7,16.6,30.06,SW,223,1.1,1.1,32,0.00,CLR,,0.00,0.0,WeatherDisplay:10.37,2013-04-22 10:17:00,
2013-04-22 04:19:00,44.6,16.5,30.06,SW,223,3.5,3.5,32,0.00,CLR,,0.00,0.0,WeatherDisplay:10.37,2013-04-22 10:19:00,
2013-04-22 04:20:00,44.6,16.5,30.06,SW,223,3.5,3.5,32,0.00,CLR,,0.00,0.0,WeatherDisplay:10.37,2013-04-22 10:20:00,
2013-04-22 04:21:00,44.6,16.5,30.06,SW,223,3.5,3.5,32,0.00,CLR,,0.00,0.0,WeatherDisplay:10.37,2013-04-22 10:21:00,
2013-04-22 04:22:00,44.6,16.5,30.06,SW,223,2.3,2.3,32,0.00,CLR,,0.00,0.0,WeatherDisplay:10.37,2013-04-22 10:22:00,
2013-04-22 04:26:00,44.6,16.5,30.06,SW,223,3.5,3.5,32,0.00,CLR,,0.00,0.0,WeatherDisplay:10.37,2013-04-22 10:26:00,
2013-04-22 04:30:00,44.7,16.6,30.07,SW,223,3.5,3.5,32,0.00,CLR,,0.00,0.0,WeatherDisplay:10.37,2013-04-22 10:30:00,
2013-04-22 04:31:00,44.7,16.6,30.07,SW,223,3.5,3.5,32,0.00,CLR,,0.00,0.0,WeatherDisplay:10.37,2013-04-22 10:31:00,
2013-04-22 04:32:00,44.8,16.7,30.06,SW,223,3.5,3.5,32,0.00,CLR,,0.00,0.0,WeatherDisplay:10.37,2013-04-22 10:32:00,
2013-04-22 04:33:00,44.8,16.7,30.06,SW,223,2.3,2.3,32,0.00,CLR,,0.00,0.0,WeatherDisplay:10.37,2013-04-22 10:33:00,
2013-04-22 04:34:00,44.9,16.8,30.06,SW,223,1.1,1.1,32,0.00,CLR,,0.00,0.0,WeatherDisplay:10.37,2013-04-22 10:34:00,
2013-04-22 04:38:00,45.2,16.3,30.06,SW,223,2.3,2.3,31,0.00,CLR,,0.00,0.0,WeatherDisplay:10.37,2013-04-22 10:38:00,
2013-04-22 04:40:00,45.2,16.3,30.06,SW,223,2.3,2.3,31,0.00,CLR,,0.00,0.0,WeatherDisplay:10.37,2013-04-22 10:40:00,
2013-04-22 04:41:00,45.1,16.2,30.06,SSW,200,3.5,3.5,31,0.00,CLR,,0.00,0.0,WeatherDisplay:10.37,2013-04-22 10:41:00,
2013-04-22 04:44:00,45.7,16.0,30.06,SSW,200,2.3,2.3,30,0.00,CLR,,0.00,0.0,WeatherDisplay:10.37,2013-04-22 10:44:00,
2013-04-22 04:45:00,45.7,16.0,30.06,SSW,200,2.3,2.3,30,0.00,CLR,,0.00,0.0,WeatherDisplay:10.37,2013-04-22 10:45:00,
2013-04-22 04:47:00,45.5,15.8,30.06,SSW,200,3.5,3.5,30,0.00,CLR,,0.00,0.0,WeatherDisplay:10.37,2013-04-22 10:47:00,
2013-04-22 04:49:00,45.4,15.7,30.06,SSW,200,2.3,2.3,30,0.00,CLR,,0.00,0.0,WeatherDisplay:10.37,2013-04-22 10:49:00,
2013-04-22 04:50:00,45.4,15.7,30.06,SSW,192,2.3,2.3,30,0.00,CLR,,0.00,0.0,WeatherDisplay:10.37,2013-04-22 10:50:00,
2013-04-22 04:52:00,45.3,15.6,30.06,SSW,192,1.1,1.1,30,0.00,CLR,,0.00,0.0,WeatherDisplay:10.37,2013-04-22 10:52:00,
2013-04-22 04:54:00,45.1,15.5,30.06,SSW,192,1.1,1.1,30,0.00,CLR,,0.00,0.0,WeatherDisplay:10.37,2013-04-22 10:54:00,
2013-04-22 04:55:00,45.1,15.5,30.06,SSW,192,1.1,1.5,30,0.00,CLR,,0.00,0.0,WeatherDisplay:10.37,2013-04-22 10:55:00,
2013-04-22 04:57:00,44.8,16.0,30.06,SSW,192,2.3,2.3,31,0.00,CLR,,0.00,0.0,WeatherDisplay:10.37,2013-04-22 10:57:00,
2013-04-22 04:58:00,44.7,15.9,30.06,SSW,192,2.3,2.3,31,0.00,CLR,,0.00,0.0,WeatherDisplay:10.37,2013-04-22 10:58:00,
2013-04-22 04:59:00,44.6,15.8,30.06,SSW,192,2.3,2.3,31,0.00,CLR,,0.00,0.0,WeatherDisplay:10.37,2013-04-22 10:59:00,
2013-04-22 05:00:00,44.6,15.8,30.06,SSW,192,2.3,2.3,31,0.00,CLR,,0.00,0.0,WeatherDisplay:10.37,2013-04-22 11:00:00,
2013-04-22 05:02:00,44.5,15.7,30.06,SSW,195,3.5,3.5,31,0.00,CLR,,0.00,0.0,WeatherDisplay:10.37,2013-04-22 11:02:00,
2013-04-22 05:03:00,44.5,15.7,30.06,SSW,195,2.3,2.3,31,0.00,CLR,,0.00,0.0,WeatherDisplay:10.37,2013-04-22 11:03:00,
2013-04-22 05:04:00,44.6,16.5,30.06,SSW,195,2.3,2.3,32,0.00,CLR,,0.00,0.0,WeatherDisplay:10.37,2013-04-22 11:04:00,
2013-04-22 05:06:00,44.7,16.6,30.06,SSW,195,3.5,3.5,32,0.00,CLR,,0.00,0.0,WeatherDisplay:10.37,2013-04-22 11:06:00,
2013-04-22 05:09:00,44.7,16.6,30.06,South,191,3.5,3.5,32,0.00,CLR,,0.00,0.0,WeatherDisplay:10.37,2013-04-22 11:09:00,
2013-04-22 05:11:00,44.9,16.0,30.06,South,191,3.5,3.5,31,0.00,CLR,,0.00,0.0,WeatherDisplay:10.37,2013-04-22 11:11:00,
2013-04-22 05:14:00,45.1,16.2,30.06,South,191,2.3,2.3,31,0.00,CLR,,0.00,0.0,WeatherDisplay:10.37,2013-04-22 11:14:00,
2013-04-22 05:16:00,45.2,16.3,30.06,South,191,2.3,2.3,31,0.00,CLR,,0.00,0.0,WeatherDisplay:10.37,2013-04-22 11:16:00,
2013-04-22 05:17:00,45.3,15.6,30.06,South,191,2.3,2.3,30,0.00,CLR,,0.00,0.0,WeatherDisplay:10.37,2013-04-22 11:17:00,
2013-04-22 05:20:00,45.6,15.9,30.06,South,191,2.3,2.3,30,0.00,CLR,,0.00,0.0,WeatherDisplay:10.37,2013-04-22 11:20:00,
2013-04-22 05:21:00,45.5,15.8,30.06,South,191,2.3,2.3,30,0.00,CLR,,0.00,0.0,WeatherDisplay:10.37,2013-04-22 11:21:00,
2013-04-22 05:22:00,45.4,15.7,30.06,South,191,2.3,2.3,30,0.00,CLR,,0.00,0.0,WeatherDisplay:10.37,2013-04-22 11:22:00,
2013-04-22 05:23:00,45.2,16.3,30.06,South,191,2.3,2.3,31,0.00,CLR,,0.00,0.0,WeatherDisplay:10.37,2013-04-22 11:23:00,
2013-04-22 05:26:00,45.1,16.2,30.06,South,191,3.5,3.5,31,0.00,CLR,,0.00,0.0,WeatherDisplay:10.37,2013-04-22 11:26:00,
2013-04-22 05:27:00,45.1,16.2,30.06,South,191,2.3,2.3,31,0.00,CLR,,0.00,0.0,WeatherDisplay:10.37,2013-04-22 11:27:00,
2013-04-22 05:31:00,45.0,16.1,30.06,South,191,2.3,2.3,31,0.00,CLR,,0.00,0.0,WeatherDisplay:10.37,2013-04-22 11:31:00,
2013-04-22 05:32:00,44.9,16.0,30.06,South,191,2.3,2.3,31,0.00,CLR,,0.00,0.0,WeatherDisplay:10.37,2013-04-22 11:32:00,
2013-04-22 05:33:00,44.7,15.9,30.06,South,191,2.3,2.3,31,0.00,CLR,,0.00,0.0,WeatherDisplay:10.37,2013-04-22 11:33:00,
2013-04-22 05:34:00,44.6,16.5,30.06,South,191,3.5,3.5,32,0.00,CLR,,0.00,0.0,WeatherDisplay:10.37,2013-04-22 11:34:00,
2013-04-22 05:38:00,44.9,16.8,30.06,South,183,3.5,3.5,32,0.00,CLR,,0.00,0.0,WeatherDisplay:10.37,2013-04-22 11:38:00,
2013-04-22 05:39:00,45.4,16.5,30.06,South,173,3.5,3.5,31,0.00,CLR,,0.00,0.0,WeatherDisplay:10.37,2013-04-22 11:39:00,
2013-04-22 05:40:00,45.8,16.8,30.06,South,173,3.5,3.5,31,0.00,CLR,,0.00,0.0,WeatherDisplay:10.37,2013-04-22 11:40:00,
2013-04-22 05:42:00,46.4,16.6,30.06,South,175,3.5,3.5,30,0.00,CLR,,0.00,0.0,WeatherDisplay:10.37,2013-04-22 11:42:00,
2013-04-22 05:44:00,46.9,17.0,30.06,SSE,167,3.5,3.5,30,0.00,CLR,,0.00,0.0,WeatherDisplay:10.37,2013-04-22 11:44:00,
2013-04-22 05:46:00,47.3,16.6,30.06,SSE,167,2.3,2.3,29,0.00,CLR,,0.00,0.0,WeatherDisplay:10.37,2013-04-22 11:46:00,
2013-04-22 05:47:00,47.6,16.9,30.06,SSE,167,3.5,3.5,29,0.00,CLR,,0.00,0.0,WeatherDisplay:10.37,2013-04-22 11:47:00,
2013-04-22 05:49:00,47.7,16.9,30.06,SSE,167,3.5,3.5,29,0.00,CLR,,0.00,0.0,WeatherDisplay:10.37,2013-04-22 11:49:00,
2013-04-22 05:51:00,47.9,16.3,30.06,SSE,166,3.5,3.5,28,0.00,CLR,,0.00,0.0,WeatherDisplay:10.37,2013-04-22 11:51:00,
2013-04-22 05:52:00,48.1,16.5,30.06,SSE,166,3.5,3.5,28,0.00,CLR,,0.00,0.0,WeatherDisplay:10.37,2013-04-22 11:52:00,
2013-04-22 05:55:00,48.3,16.7,30.06,SE,141,2.3,2.3,28,0.00,CLR,,0.00,0.0,WeatherDisplay:10.37,2013-04-22 11:55:00,
2013-04-22 05:57:00,48.0,16.4,30.06,SE,141,3.5,3.5,28,0.00,CLR,,0.00,0.0,WeatherDisplay:10.37,2013-04-22 11:57:00,
2013-04-22 05:59:00,47.8,16.2,30.06,SE,141,3.5,3.5,28,0.00,CLR,,0.00,0.0,WeatherDisplay:10.37,2013-04-22 11:59:00,
2013-04-22 06:00:00,47.7,16.1,30.06,SE,141,3.5,3.5,28,0.00,CLR,,0.00,0.0,WeatherDisplay:10.37,2013-04-22 12:00:00,
2013-04-22 06:01:00,47.7,16.1,30.06,SE,141,3.5,3.5,28,0.00,CLR,,0.00,0.0,WeatherDisplay:10.37,2013-04-22 12:01:00,
2013-04-22 06:02:00,47.7,16.1,30.06,SE,143,3.5,3.5,28,0.00,CLR,,0.00,0.0,WeatherDisplay:10.37,2013-04-22 12:02:00,
2013-04-22 06:05:00,47.7,16.1,30.06,SE,142,4.6,4.6,28,0.00,CLR,,0.00,0.0,WeatherDisplay:10.37,2013-04-22 12:05:00,
2013-04-22 06:07:00,47.8,16.2,30.06,SE,141,4.6,4.6,28,0.00,CLR,,0.00,0.0,WeatherDisplay:10.37,2013-04-22 12:07:00,
2013-04-22 06:10:00,47.9,16.3,30.06,SE,141,3.5,3.5,28,0.00,CLR,,0.00,0.0,WeatherDisplay:10.37,2013-04-22 12:10:00,
2013-04-22 06:11:00,47.9,16.3,30.06,SE,139,3.5,3.5,28,0.00,CLR,,0.00,0.0,WeatherDisplay:10.37,2013-04-22 12:11:00,
2013-04-22 06:14:00,47.9,16.3,30.06,SE,138,3.5,3.5,28,0.00,CLR,,0.00,0.0,WeatherDisplay:10.37,2013-04-22 12:14:00,
2013-04-22 06:18:00,47.9,16.3,30.06,SE,141,3.5,3.5,28,0.00,CLR,,0.00,0.0,WeatherDisplay:10.37,2013-04-22 12:18:00,
2013-04-22 06:20:00,47.9,16.3,30.06,SE,143,3.5,3.5,28,0.00,CLR,,0.00,0.0,WeatherDisplay:10.37,2013-04-22 12:20:00,
2013-04-22 06:22:00,47.8,16.2,30.06,SE,143,3.5,3.5,28,0.00,CLR,,0.00,0.0,WeatherDisplay:10.37,2013-04-22 12:22:00,
2013-04-22 06:23:00,47.9,16.3,30.07,SSE,147,3.5,3.5,28,0.00,CLR,,0.00,0.0,WeatherDisplay:10.37,2013-04-22 12:23:00,
2013-04-22 06:24:00,47.9,16.3,30.07,SSE,147,3.5,3.5,28,0.00,CLR,,0.00,0.0,WeatherDisplay:10.37,2013-04-22 12:24:00,
2013-04-22 06:27:00,48.2,16.6,30.07,SE,145,3.5,3.5,28,0.00,CLR,,0.00,5.0,WeatherDisplay:10.37,2013-04-22 12:27:00,
2013-04-22 06:28:00,48.3,16.7,30.07,SE,145,3.5,3.5,28,0.00,CLR,,0.00,7.0,WeatherDisplay:10.37,2013-04-22 12:28:00,
2013-04-22 06:29:00,48.3,17.5,30.07,SE,145,2.3,2.3,29,0.00,CLR,,0.00,7.0,WeatherDisplay:10.37,2013-04-22 12:29:00,
2013-04-22 06:30:00,48.3,17.5,30.07,SE,145,2.3,2.3,29,0.00,CLR,,0.00,7.0,WeatherDisplay:10.37,2013-04-22 12:30:00,
2013-04-22 06:32:00,48.3,17.5,30.07,SE,145,3.5,3.5,29,0.00,CLR,,0.00,9.0,WeatherDisplay:10.37,2013-04-22 12:32:00,
2013-04-22 06:33:00,48.3,17.5,30.07,SSE,153,3.5,3.5,29,0.00,CLR,,0.00,11.0,WeatherDisplay:10.37,2013-04-22 12:33:00,
2013-04-22 06:37:00,48.7,17.0,30.07,SSE,148,3.5,3.5,28,0.00,CLR,,0.00,12.0,WeatherDisplay:10.37,2013-04-22 12:37:00,
2013-04-22 06:40:00,49.0,17.3,30.07,SE,126,5.8,5.8,28,0.00,CLR,,0.00,14.0,WeatherDisplay:10.37,2013-04-22 12:40:00,
2013-04-22 06:41:00,49.1,17.3,30.07,SE,131,5.8,5.8,28,0.00,CLR,,0.00,14.0,WeatherDisplay:10.37,2013-04-22 12:41:00,
2013-04-22 06:42:00,49.3,17.5,30.07,SE,135,5.8,5.8,28,0.00,CLR,,0.00,16.0,WeatherDisplay:10.37,2013-04-22 12:42:00,
2013-04-22 06:43:00,49.4,17.6,30.07,SE,133,5.0,5.0,28,0.00,CLR,,0.00,16.0,WeatherDisplay:10.37,2013-04-22 12:43:00,
2013-04-22 06:45:00,49.5,17.7,30.07,SE,136,4.6,4.6,28,0.00,CLR,,0.00,18.0,WeatherDisplay:10.37,2013-04-22 12:45:00,
2013-04-22 06:46:00,49.5,17.7,30.07,SE,143,4.0,4.0,28,0.00,CLR,,0.00,18.0,WeatherDisplay:10.37,2013-04-22 12:46:00,
2013-04-22 06:48:00,49.6,17.8,30.07,SE,131,4.6,4.6,28,0.00,CLR,,0.00,18.0,WeatherDisplay:10.37,2013-04-22 12:48:00,
2013-04-22 06:50:00,49.8,18.0,30.07,SSE,160,4.6,4.6,28,0.00,CLR,,0.00,19.0,WeatherDisplay:10.37,2013-04-22 12:50:00,
2013-04-22 06:54:00,50.4,17.6,30.07,SSE,155,3.5,3.5,27,0.00,CLR,,0.00,21.0,WeatherDisplay:10.37,2013-04-22 12:54:00,
2013-04-22 06:56:00,50.5,17.7,30.07,SSE,153,3.5,3.5,27,0.00,CLR,,0.00,21.0,WeatherDisplay:10.37,2013-04-22 12:56:00,
2013-04-22 06:58:00,50.5,17.7,30.07,SSE,167,3.5,3.5,27,0.00,CLR,,0.00,23.0,WeatherDisplay:10.37,2013-04-22 12:58:00,
2013-04-22 06:59:00,50.6,17.8,30.07,SSE,162,3.5,3.5,27,0.00,CLR,,0.00,23.0,WeatherDisplay:10.37,2013-04-22 12:59:00,
2013-04-22 07:00:00,50.6,17.8,30.08,SSE,162,3.5,3.5,27,0.00,CLR,,0.00,23.0,WeatherDisplay:10.37,2013-04-22 13:00:00,
2013-04-22 07:02:00,50.6,17.8,30.07,SSE,162,3.5,3.5,27,0.00,CLR,,0.00,25.0,WeatherDisplay:10.37,2013-04-22 13:02:00,
2013-04-22 07:03:00,50.6,17.8,30.07,SSE,162,3.5,3.5,27,0.00,CLR,,0.00,25.0,WeatherDisplay:10.37,2013-04-22 13:03:00,
2013-04-22 07:05:00,50.6,17.8,30.07,SSE,162,2.3,2.3,27,0.00,CLR,,0.00,28.0,WeatherDisplay:10.37,2013-04-22 13:05:00,
2013-04-22 07:07:00,50.7,17.9,30.08,SSE,162,1.1,1.1,27,0.00,CLR,,0.00,28.0,WeatherDisplay:10.37,2013-04-22 13:07:00,
2013-04-22 07:08:00,50.7,17.9,30.08,SSE,162,1.1,1.1,27,0.00,CLR,,0.00,35.0,WeatherDisplay:10.37,2013-04-22 13:08:00,
2013-04-22 07:10:00,50.8,18.0,30.08,SSE,162,2.3,2.3,27,0.00,CLR,,0.00,40.0,WeatherDisplay:10.37,2013-04-22 13:10:00,
2013-04-22 07:11:00,50.8,18.0,30.07,SSE,162,3.5,3.5,27,0.00,CLR,,0.00,42.0,WeatherDisplay:10.37,2013-04-22 13:11:00,
2013-04-22 07:13:00,50.8,18.0,30.07,SSE,162,2.3,2.3,27,0.00,CLR,,0.00,46.0,WeatherDisplay:10.37,2013-04-22 13:13:00,
2013-04-22 07:14:00,50.9,18.1,30.07,SSE,162,2.3,2.3,27,0.00,CLR,,0.00,51.0,WeatherDisplay:10.37,2013-04-22 13:14:00,
2013-04-22 07:15:00,50.9,18.1,30.07,SSE,162,2.3,2.3,27,0.00,CLR,,0.00,53.0,WeatherDisplay:10.37,2013-04-22 13:15:00,
2013-04-22 07:16:00,51.0,18.1,30.07,SSE,162,2.3,2.3,27,0.00,CLR,,0.00,54.0,WeatherDisplay:10.37,2013-04-22 13:16:00,
2013-04-22 07:17:00,51.0,18.1,30.07,SSE,162,3.5,3.5,27,0.00,CLR,,0.00,58.0,WeatherDisplay:10.37,2013-04-22 13:17:00,
2013-04-22 07:19:00,51.1,18.2,30.07,SSE,162,3.5,3.5,27,0.00,CLR,,0.00,63.0,WeatherDisplay:10.37,2013-04-22 13:19:00,
2013-04-22 07:20:00,51.2,18.3,30.08,SSE,162,3.5,3.5,27,0.00,CLR,,0.00,65.0,WeatherDisplay:10.37,2013-04-22 13:20:00,
2013-04-22 07:21:00,51.3,18.4,30.08,SSE,162,2.3,2.3,27,0.00,CLR,,0.00,70.0,WeatherDisplay:10.37,2013-04-22 13:21:00,
2013-04-22 07:23:00,51.5,18.6,30.08,SSE,162,1.1,1.1,27,0.00,CLR,,0.00,76.0,WeatherDisplay:10.37,2013-04-22 13:23:00,
2013-04-22 07:26:00,51.7,18.7,30.08,SSE,162,3.5,3.5,27,0.00,CLR,,0.00,88.0,WeatherDisplay:10.37,2013-04-22 13:26:00,
2013-04-22 07:27:00,51.7,18.7,30.08,SSE,162,2.3,2.3,27,0.00,CLR,,0.00,91.0,WeatherDisplay:10.37,2013-04-22 13:27:00,
2013-04-22 07:29:00,51.9,18.9,30.08,SSE,162,3.5,3.5,27,0.00,CLR,,0.00,97.0,WeatherDisplay:10.37,2013-04-22 13:29:00,
2013-04-22 07:32:00,52.0,18.1,30.08,SSE,162,3.5,3.5,26,0.00,CLR,,0.00,111.0,WeatherDisplay:10.37,2013-04-22 13:32:00,
2013-04-22 07:33:00,52.0,19.0,30.08,SSE,162,3.5,3.5,27,0.00,CLR,,0.00,114.0,WeatherDisplay:10.37,2013-04-22 13:33:00,
2013-04-22 07:34:00,52.1,18.2,30.08,SSE,161,3.5,3.5,26,0.00,CLR,,0.00,118.0,WeatherDisplay:10.37,2013-04-22 13:34:00,
2013-04-22 07:35:00,52.1,18.2,30.08,SSE,160,4.6,4.6,26,0.00,CLR,,0.00,121.0,WeatherDisplay:10.37,2013-04-22 13:35:00,
2013-04-22 07:37:00,52.2,18.3,30.08,SSE,149,4.6,4.6,26,0.00,CLR,,0.00,132.0,WeatherDisplay:10.37,2013-04-22 13:37:00,
2013-04-22 07:38:00,52.2,18.3,30.08,SE,140,4.6,4.6,26,0.00,CLR,,0.00,135.0,WeatherDisplay:10.37,2013-04-22 13:38:00,
2013-04-22 07:40:00,52.3,18.4,30.08,SE,141,4.0,4.0,26,0.00,CLR,,0.00,142.0,WeatherDisplay:10.37,2013-04-22 13:40:00,
2013-04-22 07:44:00,52.6,18.6,30.08,SSE,156,3.5,3.5,26,0.00,CLR,,0.00,160.0,WeatherDisplay:10.37,2013-04-22 13:44:00,
2013-04-22 07:45:00,52.6,18.6,30.08,SE,135,4.6,4.6,26,0.00,CLR,,0.00,163.0,WeatherDisplay:10.37,2013-04-22 13:45:00,
2013-04-22 07:46:00,52.6,18.6,30.08,SE,135,3.5,3.5,26,0.00,CLR,,0.00,167.0,WeatherDisplay:10.37,2013-04-22 13:46:00,
2013-04-22 07:50:00,53.1,19.1,30.08,SE,135,5.8,5.8,26,0.00,CLR,,0.00,186.0,WeatherDisplay:10.37,2013-04-22 13:50:00,
2013-04-22 07:52:00,53.2,19.2,30.08,SE,135,2.3,2.3,26,0.00,CLR,,0.00,193.0,WeatherDisplay:10.37,2013-04-22 13:52:00,
2013-04-22 07:55:00,53.6,18.6,30.08,SE,133,4.6,4.6,25,0.00,CLR,,0.00,209.0,WeatherDisplay:10.37,2013-04-22 13:55:00,
2013-04-22 07:57:00,53.6,18.6,30.08,SE,135,4.6,4.6,25,0.00,CLR,,0.00,216.0,WeatherDisplay:10.37,2013-04-22 13:57:00,
2013-04-22 07:59:00,53.7,18.7,30.08,SE,139,6.0,6.0,25,0.00,CLR,,0.00,225.0,WeatherDisplay:10.37,2013-04-22 13:59:00,
2013-04-22 08:00:00,53.7,18.7,30.08,SE,141,3.5,3.8,25,0.00,CLR,,0.00,229.0,WeatherDisplay:10.37,2013-04-22 14:00:00,
2013-04-22 08:01:00,53.8,18.7,30.08,SE,131,5.8,5.8,25,0.00,FEW,,0.00,236.0,WeatherDisplay:10.37,2013-04-22 14:01:00,
2013-04-22 08:02:00,53.9,18.8,30.08,SE,143,4.6,4.6,25,0.00,FEW,,0.00,241.0,WeatherDisplay:10.37,2013-04-22 14:02:00,
2013-04-22 08:04:00,54.1,19.0,30.08,SE,143,4.0,4.0,25,0.00,FEW,,0.00,246.0,WeatherDisplay:10.37,2013-04-22 14:04:00,
2013-04-22 08:05:00,54.2,19.1,30.08,SSE,166,3.5,4.0,25,0.00,FEW,,0.00,250.0,WeatherDisplay:10.37,2013-04-22 14:05:00,
2013-04-22 08:09:00,54.5,19.3,30.08,SE,142,5.8,5.8,25,0.00,FEW,,0.00,265.0,WeatherDisplay:10.37,2013-04-22 14:09:00,
2013-04-22 08:10:00,54.6,19.4,30.08,SSE,158,8.0,8.0,25,0.00,FEW,,0.00,269.0,WeatherDisplay:10.37,2013-04-22 14:10:00,
2013-04-22 08:11:00,54.6,19.4,30.08,SE,135,8.1,8.1,25,0.00,FEW,,0.00,271.0,WeatherDisplay:10.37,2013-04-22 14:11:00,
2013-04-22 08:13:00,54.7,18.6,30.08,SSE,159,6.9,6.9,24,0.00,FEW,,0.00,279.0,WeatherDisplay:10.37,2013-04-22 14:13:00,
2013-04-22 08:17:00,55.1,19.9,30.08,ESE,112,5.8,5.8,25,0.00,FEW,,0.00,292.0,WeatherDisplay:10.37,2013-04-22 14:17:00,
2013-04-22 08:19:00,55.4,20.1,30.08,SSE,164,6.9,6.9,25,0.00,FEW,,0.00,301.0,WeatherDisplay:10.37,2013-04-22 14:19:00,
2013-04-22 08:21:00,55.6,19.3,30.08,SE,137,5.8,5.8,24,0.00,FEW,,0.00,308.0,WeatherDisplay:10.37,2013-04-22 14:21:00,
2013-04-22 08:22:00,55.7,19.4,30.08,SSE,152,4.6,4.6,24,0.00,FEW,,0.00,311.0,WeatherDisplay:10.37,2013-04-22 14:22:00,
2013-04-22 08:23:00,55.7,19.4,30.08,SE,146,6.9,6.9,24,0.00,FEW,,0.00,313.0,WeatherDisplay:10.37,2013-04-22 14:23:00,
2013-04-22 08:24:00,55.8,19.5,30.08,SE,133,8.1,8.1,24,0.00,FEW,,0.00,318.0,WeatherDisplay:10.37,2013-04-22 14:24:00,
2013-04-22 08:27:00,56.1,19.8,30.08,SE,133,9.2,9.2,24,0.00,FEW,,0.00,329.0,WeatherDisplay:10.37,2013-04-22 14:27:00,
2013-04-22 08:29:00,56.2,19.8,30.08,SE,125,10.4,10.4,24,0.00,FEW,,0.00,334.0,WeatherDisplay:10.37,2013-04-22 14:29:00,
2013-04-22 08:30:00,56.3,19.9,30.08,SE,131,10.4,10.4,24,0.00,FEW,,0.00,338.0,WeatherDisplay:10.37,2013-04-22 14:30:00,
2013-04-22 08:33:00,56.7,20.3,30.08,ESE,112,5.8,5.8,24,0.00,FEW,,0.00,350.0,WeatherDisplay:10.37,2013-04-22 14:33:00,
2013-04-22 08:34:00,57.0,20.5,30.08,SE,131,8.0,8.0,24,0.00,FEW,,0.00,353.0,WeatherDisplay:10.37,2013-04-22 14:34:00,
2013-04-22 08:35:00,57.1,19.6,30.08,SE,126,8.1,8.1,23,0.00,FEW,,0.00,357.0,WeatherDisplay:10.37,2013-04-22 14:35:00,
2013-04-22 08:37:00,57.4,19.9,30.08,SSE,165,5.0,5.0,23,0.00,FEW,,0.00,366.0,WeatherDisplay:10.37,2013-04-22 14:37:00,
2013-04-22 08:39:00,57.6,20.0,30.08,SE,135,6.9,6.9,23,0.00,FEW,,0.00,373.0,WeatherDisplay:10.37,2013-04-22 14:39:00,
2013-04-22 08:40:00,57.8,19.1,30.08,South,175,6.9,6.9,22,0.00,FEW,,0.00,374.0,WeatherDisplay:10.37,2013-04-22 14:40:00,
2013-04-22 08:43:00,58.1,18.3,30.08,SE,127,8.1,8.1,21,0.00,FEW,,0.00,387.0,WeatherDisplay:10.37,2013-04-22 14:43:00,
2013-04-22 08:44:00,58.1,18.3,30.08,ESE,123,8.1,8.1,21,0.00,FEW,,0.00,390.0,WeatherDisplay:10.37,2013-04-22 14:44:00,
2013-04-22 08:47:00,58.3,19.6,30.08,SE,129,4.6,4.6,22,0.00,FEW,,0.00,399.0,WeatherDisplay:10.37,2013-04-22 14:47:00,
2013-04-22 08:48:00,58.4,19.7,30.08,ESE,118,6.9,6.9,22,0.00,FEW,,0.00,404.0,WeatherDisplay:10.37,2013-04-22 14:48:00,
2013-04-22 08:49:00,58.4,19.7,30.08,SE,128,6.9,6.9,22,0.00,FEW,,0.00,408.0,WeatherDisplay:10.37,2013-04-22 14:49:00,
2013-04-22 08:51:00,58.6,18.7,30.08,SE,145,5.8,5.8,21,0.00,FEW,,0.00,415.0,WeatherDisplay:10.37,2013-04-22 14:51:00,
2013-04-22 08:53:00,58.8,18.9,30.08,SSE,159,6.9,6.9,21,0.00,FEW,,0.00,424.0,WeatherDisplay:10.37,2013-04-22 14:53:00,
2013-04-22 08:54:00,58.9,17.8,30.08,SE,134,8.1,8.1,20,0.00,FEW,,0.00,427.0,WeatherDisplay:10.37,2013-04-22 14:54:00,
2013-04-22 08:55:00,58.9,19.0,30.08,SSE,150,8.1,8.1,21,0.00,FEW,,0.00,431.0,WeatherDisplay:10.37,2013-04-22 14:55:00,
2013-04-22 08:57:00,58.9,19.0,30.08,SSE,152,6.9,6.9,21,0.00,FEW,,0.00,436.0,WeatherDisplay:10.37,2013-04-22 14:57:00,
2013-04-22 09:00:00,59.2,19.2,30.08,SSE,161,4.6,4.6,21,0.00,FEW,,0.00,450.0,WeatherDisplay:10.37,2013-04-22 15:00:00,
2013-04-22 09:01:00,59.3,18.2,30.08,ESE,123,8.1,8.1,20,0.00,FEW,,0.00,454.0,WeatherDisplay:10.37,2013-04-22 15:01:00,
2013-04-22 09:02:00,59.3,18.2,30.08,SE,137,8.1,8.1,20,0.00,FEW,,0.00,455.0,WeatherDisplay:10.37,2013-04-22 15:02:00,
2013-04-22 09:04:00,59.5,18.3,30.08,SE,131,8.1,8.1,20,0.00,FEW,,0.00,461.0,WeatherDisplay:10.37,2013-04-22 15:04:00,
2013-04-22 09:06:00,59.7,18.5,30.08,SE,141,6.9,6.9,20,0.00,FEW,,0.00,473.0,WeatherDisplay:10.37,2013-04-22 15:06:00,
2013-04-22 09:07:00,59.8,18.6,30.08,SE,127,10.4,10.4,20,0.00,FEW,,0.00,475.0,WeatherDisplay:10.37,2013-04-22 15:07:00,
2013-04-22 09:08:00,59.7,18.5,30.08,ESE,108,9.2,9.2,20,0.00,FEW,,0.00,476.0,WeatherDisplay:10.37,2013-04-22 15:08:00,
2013-04-22 09:09:00,59.8,18.6,30.08,SE,131,6.9,6.9,20,0.00,FEW,,0.00,482.0,WeatherDisplay:10.37,2013-04-22 15:09:00,
2013-04-22 09:12:00,60.0,18.8,30.08,SE,130,6.9,6.9,20,0.00,FEW,,0.00,492.0,WeatherDisplay:10.37,2013-04-22 15:12:00,
2013-04-22 09:13:00,60.0,18.8,30.08,SE,135,8.1,8.1,20,0.00,FEW,,0.00,496.0,WeatherDisplay:10.37,2013-04-22 15:13:00,
2013-04-22 09:15:00,60.2,18.9,30.08,SE,133,9.2,9.2,20,0.00,FEW,,0.00,501.0,WeatherDisplay:10.37,2013-04-22 15:15:00,
2013-04-22 09:17:00,60.4,19.1,30.08,SE,129,8.1,8.1,20,0.00,FEW,,0.00,510.0,WeatherDisplay:10.37,2013-04-22 15:17:00,
2013-04-22 09:19:00,60.5,19.2,30.08,SE,124,4.0,4.0,20,0.00,FEW,,0.00,517.0,WeatherDisplay:10.37,2013-04-22 15:19:00,
2013-04-22 09:21:00,60.8,18.2,30.08,SSE,153,9.2,9.2,19,0.00,FEW,,0.00,522.0,WeatherDisplay:10.37,2013-04-22 15:21:00,
2013-04-22 09:23:00,61.1,18.5,30.08,SE,127,8.1,8.1,19,0.00,FEW,,0.00,531.0,WeatherDisplay:10.37,2013-04-22 15:23:00,
2013-04-22 09:25:00,61.1,18.5,30.08,SE,129,5.8,5.8,19,0.00,FEW,,0.00,538.0,WeatherDisplay:10.37,2013-04-22 15:25:00,
2013-04-22 09:26:00,61.1,18.5,30.08,SE,136,6.9,6.9,19,0.00,FEW,,0.00,540.0,WeatherDisplay:10.37,2013-04-22 15:26:00,
2013-04-22 09:28:00,61.1,18.5,30.08,SE,128,8.1,8.1,19,0.00,FEW,,0.00,548.0,WeatherDisplay:10.37,2013-04-22 15:28:00,
2013-04-22 09:31:00,61.2,18.6,30.08,ESE,116,5.8,5.8,19,0.00,FEW,,0.00,559.0,WeatherDisplay:10.37,2013-04-22 15:31:00,
2013-04-22 09:32:00,61.4,18.7,30.08,SE,146,5.8,5.8,19,0.00,FEW,,0.00,561.0,WeatherDisplay:10.37,2013-04-22 15:32:00,
2013-04-22 09:33:00,61.6,18.9,30.08,ESE,123,8.1,8.1,19,0.00,FEW,,0.00,563.0,WeatherDisplay:10.37,2013-04-22 15:33:00,
2013-04-22 09:34:00,61.8,19.0,30.08,SSE,151,9.2,9.2,19,0.00,FEW,,0.00,566.0,WeatherDisplay:10.37,2013-04-22 15:34:00,
2013-04-22 09:35:00,62.0,19.2,30.08,ESE,102,9.2,9.2,19,0.00,FEW,,0.00,571.0,WeatherDisplay:10.37,2013-04-22 15:35:00,
2013-04-22 09:37:00,62.3,19.5,30.07,SE,137,6.9,6.9,19,0.00,FEW,,0.00,578.0,WeatherDisplay:10.37,2013-04-22 15:37:00,
2013-04-22 09:38:00,62.3,19.5,30.08,ESE,116,6.9,6.9,19,0.00,FEW,,0.00,582.0,WeatherDisplay:10.37,2013-04-22 15:38:00,
2013-04-22 09:39:00,62.4,19.5,30.07,ESE,121,11.5,11.5,19,0.00,FEW,,0.00,584.0,WeatherDisplay:10.37,2013-04-22 15:39:00,
2013-04-22 09:42:00,62.8,18.6,30.08,SE,127,10.4,10.4,18,0.00,FEW,,0.00,596.0,WeatherDisplay:10.37,2013-04-22 15:42:00,
2013-04-22 09:43:00,62.9,18.7,30.08,ESE,121,11.5,11.5,18,0.00,FEW,,0.00,599.0,WeatherDisplay:10.37,2013-04-22 15:43:00,
2013-04-22 09:45:00,63.1,18.9,30.08,ESE,107,8.1,8.1,18,0.00,FEW,,0.00,601.0,WeatherDisplay:10.37,2013-04-22 15:45:00,
2013-04-22 09:46:00,63.2,18.9,30.07,SE,125,9.2,9.2,18,0.00,FEW,,0.00,610.0,WeatherDisplay:10.37,2013-04-22 15:46:00,
2013-04-22 09:47:00,63.4,19.1,30.07,SE,135,9.2,9.2,18,0.00,FEW,,0.00,612.0,WeatherDisplay:10.37,2013-04-22 15:47:00,
2013-04-22 09:49:00,63.2,18.9,30.07,ESE,107,6.9,6.9,18,0.00,FEW,,0.00,619.0,WeatherDisplay:10.37,2013-04-22 15:49:00,
2013-04-22 09:52:00,63.5,19.2,30.07,SE,130,5.8,5.8,18,0.00,FEW,,0.00,631.0,WeatherDisplay:10.37,2013-04-22 15:52:00,
2013-04-22 09:53:00,63.6,19.3,30.07,SE,132,5.8,5.8,18,0.00,FEW,,0.00,635.0,WeatherDisplay:10.37,2013-04-22 15:53:00,
2013-04-22 09:55:00,64.1,18.3,30.07,ESE,123,11.5,11.5,17,0.00,FEW,,0.00,638.0,WeatherDisplay:10.37,2013-04-22 15:55:00,
2013-04-22 09:56:00,64.2,18.4,30.07,ESE,118,9.2,9.2,17,0.00,FEW,,0.00,643.0,WeatherDisplay:10.37,2013-04-22 15:56:00,
2013-04-22 09:57:00,64.2,18.4,30.07,ESE,123,6.9,6.9,17,0.00,FEW,,0.00,645.0,WeatherDisplay:10.37,2013-04-22 15:57:00,
2013-04-22 09:58:00,64.4,19.9,30.07,SE,146,10.4,10.4,18,0.00,FEW,,0.00,650.0,WeatherDisplay:10.37,2013-04-22 15:58:00,
2013-04-22 10:01:00,64.8,18.9,30.07,SE,142,8.1,8.1,17,0.00,FEW,,0.00,659.0,WeatherDisplay:10.37,2013-04-22 16:01:00,
2013-04-22 10:03:00,64.9,19.0,30.07,ESE,108,10.4,10.4,17,0.00,FEW,,0.00,666.0,WeatherDisplay:10.37,2013-04-22 16:03:00,
2013-04-22 10:05:00,65.3,19.3,30.07,East,84,9.2,9.2,17,0.00,FEW,,0.00,673.0,WeatherDisplay:10.37,2013-04-22 16:05:00,
2013-04-22 10:06:00,65.6,19.6,30.07,ESE,116,10.4,10.4,17,0.00,FEW,,0.00,675.0,WeatherDisplay:10.37,2013-04-22 16:06:00,
2013-04-22 10:10:00,66.4,18.8,30.07,ESE,123,8.1,8.1,16,0.00,FEW,,0.00,689.0,WeatherDisplay:10.37,2013-04-22 16:10:00,
2013-04-22 10:11:00,66.5,18.9,30.07,SE,135,11.5,11.5,16,0.00,FEW,,0.00,693.0,WeatherDisplay:10.37,2013-04-22 16:11:00,
2013-04-22 10:12:00,66.4,18.8,30.07,SE,143,11.5,11.5,16,0.00,FEW,,0.00,693.0,WeatherDisplay:10.37,2013-04-22 16:12:00,
2013-04-22 10:13:00,66.2,18.6,30.07,SSE,157,11.5,11.5,16,0.00,FEW,,0.00,696.0,WeatherDisplay:10.37,2013-04-22 16:13:00,
2013-04-22 10:16:00,66.4,18.8,30.07,ESE,121,9.2,9.2,16,0.00,FEW,,0.00,707.0,WeatherDisplay:10.37,2013-04-22 16:16:00,
2013-04-22 10:17:00,66.3,18.7,30.07,ESE,106,8.1,8.1,16,0.00,FEW,,0.00,710.0,WeatherDisplay:10.37,2013-04-22 16:17:00,
2013-04-22 10:18:00,66.5,18.9,30.07,ESE,109,10.4,10.4,16,0.00,FEW,,0.00,712.0,WeatherDisplay:10.37,2013-04-22 16:18:00,
2013-04-22 10:19:00,66.7,19.0,30.06,East,99,9.2,9.2,16,0.00,FEW,,0.00,714.0,WeatherDisplay:10.37,2013-04-22 16:19:00,
2013-04-22 10:22:00,67.6,19.8,30.07,SE,141,8.1,8.1,16,0.00,FEW,,0.00,726.0,WeatherDisplay:10.37,2013-04-22 16:22:00,
2013-04-22 10:23:00,67.7,19.8,30.06,ESE,102,8.1,8.1,16,0.00,FEW,,0.00,728.0,WeatherDisplay:10.37,2013-04-22 16:23:00,
2013-04-22 10:25:00,67.9,20.0,30.06,East,98,7.0,7.0,16,0.00,FEW,,0.00,735.0,WeatherDisplay:10.37,2013-04-22 16:25:00,
2013-04-22 10:27:00,68.5,19.0,30.06,SE,139,4.6,4.6,15,0.00,FEW,,0.00,740.0,WeatherDisplay:10.37,2013-04-22 16:27:00,
2013-04-22 10:28:00,68.7,19.1,30.06,SE,132,4.6,4.6,15,0.00,FEW,,0.00,742.0,WeatherDisplay:10.37,2013-04-22 16:28:00,
2013-04-22 10:29:00,69.1,19.5,30.06,SSE,151,4.6,4.6,15,0.00,FEW,,0.00,744.0,WeatherDisplay:10.37,2013-04-22 16:29:00,
2013-04-22 10:31:00,69.5,19.8,30.06,SE,124,9.2,9.2,15,0.00,FEW,,0.00,751.0,WeatherDisplay:10.37,2013-04-22 16:31:00,
2013-04-22 10:32:00,69.7,18.3,30.06,SE,139,9.2,9.2,14,0.00,FEW,,0.00,754.0,WeatherDisplay:10.37,2013-04-22 16:32:00,
2013-04-22 10:34:00,69.7,18.3,30.06,SSE,149,8.1,8.1,14,0.00,FEW,,0.00,761.0,WeatherDisplay:10.37,2013-04-22 16:34:00,
2013-04-22 10:37:00,69.9,16.8,30.06,SSE,157,11.5,11.5,13,0.00,FEW,,0.00,768.0,WeatherDisplay:10.37,2013-04-22 16:37:00,
2013-04-22 10:39:00,69.8,16.7,30.06,SSE,152,8.1,8.1,13,0.00,FEW,,0.00,775.0,WeatherDisplay:10.37,2013-04-22 16:39:00,
2013-04-22 10:41:00,69.9,16.8,30.06,East,99,3.5,3.5,13,0.00,FEW,,0.00,779.0,WeatherDisplay:10.37,2013-04-22 16:41:00,
2013-04-22 10:42:00,70.1,16.9,30.06,SSE,167,4.6,4.6,13,0.00,FEW,,0.00,780.0,WeatherDisplay:10.37,2013-04-22 16:42:00,
2013-04-22 10:45:00,70.1,16.9,30.06,ESE,123,8.1,8.1,13,0.00,FEW,,0.00,791.0,WeatherDisplay:10.37,2013-04-22 16:45:00,
2013-04-22 10:48:00,71.0,15.8,30.06,SE,139,12.7,12.7,12,0.00,FEW,,0.00,798.0,WeatherDisplay:10.37,2013-04-22 16:48:00,
2013-04-22 10:49:00,71.2,15.9,30.05,SE,131,11.5,11.5,12,0.00,FEW,,0.00,800.0,WeatherDisplay:10.37,2013-04-22 16:49:00,
2013-04-22 10:50:00,71.3,16.0,30.05,SE,142,11.5,11.5,12,0.00,FEW,,0.00,802.0,WeatherDisplay:10.37,2013-04-22 16:50:00,
2013-04-22 10:53:00,71.4,16.1,30.05,SE,124,11.5,11.5,12,0.00,FEW,,0.00,809.0,WeatherDisplay:10.37,2013-04-22 16:53:00,
2013-04-22 10:57:00,71.7,16.3,30.05,SSE,160,7.0,7.0,12,0.00,FEW,,0.00,821.0,WeatherDisplay:10.37,2013-04-22 16:57:00,
2013-04-22 10:58:00,71.7,16.3,30.05,SSE,162,6.9,6.9,12,0.00,FEW,,0.00,823.0,WeatherDisplay:10.37,2013-04-22 16:58:00,
2013-04-22 10:59:00,71.6,16.2,30.05,South,173,5.8,5.8,12,0.00,FEW,,0.00,823.0,WeatherDisplay:10.37,2013-04-22 16:59:00,
2013-04-22 11:00:00,71.9,16.5,30.05,South,187,7.0,7.0,12,0.00,FEW,,0.00,826.0,WeatherDisplay:10.37,2013-04-22 17:00:00,
2013-04-22 11:05:00,73.6,15.8,30.05,SW,222,10.4,10.4,11,0.00,FEW,,0.00,838.0,WeatherDisplay:10.37,2013-04-22 17:05:00,
2013-04-22 11:08:00,74.4,16.4,30.05,WSW,240,9.2,9.2,11,0.00,FEW,,0.00,844.0,WeatherDisplay:10.37,2013-04-22 17:08:00,
2013-04-22 11:09:00,74.9,16.8,30.05,WSW,252,11.5,11.5,11,0.00,FEW,,0.00,847.0,WeatherDisplay:10.37,2013-04-22 17:09:00,
2013-04-22 11:10:00,75.3,17.1,30.05,WSW,241,11.5,11.5,11,0.00,FEW,,0.00,851.0,WeatherDisplay:10.37,2013-04-22 17:10:00,
2013-04-22 11:14:00,75.1,14.8,30.05,West,268,11.5,11.5,10,0.00,FEW,,0.00,861.0,WeatherDisplay:10.37,2013-04-22 17:14:00,
2013-04-22 11:16:00,75.5,15.1,30.05,WSW,241,19.6,19.6,10,0.00,FEW,,0.00,868.0,WeatherDisplay:10.37,2013-04-22 17:16:00,
2013-04-22 11:18:00,75.7,15.2,30.05,WSW,245,13.8,13.8,10,0.00,FEW,,0.00,870.0,WeatherDisplay:10.37,2013-04-22 17:18:00,
2013-04-22 11:19:00,75.6,15.1,30.05,WSW,258,12.7,12.7,10,0.00,FEW,,0.00,868.0,WeatherDisplay:10.37,2013-04-22 17:19:00,
2013-04-22 11:21:00,75.7,15.2,30.05,WSW,245,9.2,9.2,10,0.00,FEW,,0.00,875.0,WeatherDisplay:10.37,2013-04-22 17:21:00,
2013-04-22 11:24:00,75.8,15.3,30.04,WSW,238,12.7,12.7,10,0.00,FEW,,0.00,882.0,WeatherDisplay:10.37,2013-04-22 17:24:00,
2013-04-22 11:26:00,76.4,15.7,30.04,West,269,11.5,11.5,10,0.00,FEW,,0.00,888.0,WeatherDisplay:10.37,2013-04-22 17:26:00,
2013-04-22 11:27:00,76.6,15.9,30.04,West,271,15.0,15.0,10,0.00,FEW,,0.00,889.0,WeatherDisplay:10.37,2013-04-22 17:27:00,
2013-04-22 11:29:00,76.2,15.6,30.04,WSW,258,8.1,8.1,10,0.00,FEW,,0.00,891.0,WeatherDisplay:10.37,2013-04-22 17:29:00,
2013-04-22 11:31:00,76.3,15.7,30.04,WNW,289,6.9,6.9,10,0.00,FEW,,0.00,895.0,WeatherDisplay:10.37,2013-04-22 17:31:00,
2013-04-22 11:32:00,76.3,15.7,30.04,WNW,288,9.2,9.2,10,0.00,FEW,,0.00,898.0,WeatherDisplay:10.37,2013-04-22 17:32:00,
2013-04-22 11:33:00,76.3,15.7,30.04,WNW,282,6.0,6.0,10,0.00,FEW,,0.00,900.0,WeatherDisplay:10.37,2013-04-22 17:33:00,
2013-04-22 11:34:00,76.4,15.7,30.04,West,260,9.2,9.2,10,0.00,FEW,,0.00,902.0,WeatherDisplay:10.37,2013-04-22 17:34:00,
2013-04-22 11:38:00,76.8,16.1,30.04,West,272,11.5,11.5,10,0.00,FEW,,0.00,911.0,WeatherDisplay:10.37,2013-04-22 17:38:00,
2013-04-22 11:40:00,77.1,16.3,30.04,SSW,200,11.5,11.5,10,0.00,FEW,,0.00,914.0,WeatherDisplay:10.37,2013-04-22 17:40:00,
2013-04-22 11:41:00,76.9,13.7,30.04,SSW,200,6.9,6.9,9,0.00,FEW,,0.00,914.0,WeatherDisplay:10.37,2013-04-22 17:41:00,
2013-04-22 11:43:00,76.0,15.4,30.04,WSW,243,8.1,8.1,10,0.00,FEW,,0.00,918.0,WeatherDisplay:10.37,2013-04-22 17:43:00,
2013-04-22 11:46:00,76.0,15.4,30.04,WNW,291,10.0,10.0,10,0.00,FEW,,0.00,923.0,WeatherDisplay:10.37,2013-04-22 17:46:00,
2013-04-22 11:47:00,76.1,15.5,30.03,WNW,285,10.4,10.4,10,0.00,FEW,,0.00,926.0,WeatherDisplay:10.37,2013-04-22 17:47:00,
2013-04-22 11:48:00,76.2,15.6,30.03,West,266,8.1,8.1,10,0.00,FEW,,0.00,928.0,WeatherDisplay:10.37,2013-04-22 17:48:00,
2013-04-22 11:51:00,76.8,16.1,30.03,West,269,10.4,10.4,10,0.00,FEW,,0.00,933.0,WeatherDisplay:10.37,2013-04-22 17:51:00,
2013-04-22 11:53:00,77.4,16.5,30.03,SW,229,9.2,9.2,10,0.00,FEW,,0.00,937.0,WeatherDisplay:10.37,2013-04-22 17:53:00,
2013-04-22 11:54:00,77.8,14.4,30.03,WNW,283,9.2,9.2,9,0.00,FEW,,0.00,935.0,WeatherDisplay:10.37,2013-04-22 17:54:00,
2013-04-22 11:56:00,77.5,16.6,30.03,West,262,9.2,9.2,10,0.00,FEW,,0.00,940.0,WeatherDisplay:10.37,2013-04-22 17:56:00,
2013-04-22 11:57:00,77.8,14.4,30.03,West,275,6.9,6.9,9,0.00,FEW,,0.00,944.0,WeatherDisplay:10.37,2013-04-22 17:57:00,
2013-04-22 11:59:00,78.0,14.5,30.03,WSW,242,10.4,10.4,9,0.00,FEW,,0.00,946.0,WeatherDisplay:10.37,2013-04-22 17:59:00,
2013-04-22 12:00:00,78.0,14.5,30.03,SW,224,10.4,10.4,9,0.00,FEW,,0.00,946.0,WeatherDisplay:10.37,2013-04-22 18:00:00,
2013-04-22 12:01:00,78.0,14.5,30.03,SSW,212,6.9,6.9,9,0.00,FEW,,0.00,949.0,WeatherDisplay:10.37,2013-04-22 18:01:00,
2013-04-22 12:02:00,77.1,13.9,30.03,South,181,6.9,6.9,9,0.00,FEW,,0.00,947.0,WeatherDisplay:10.37,2013-04-22 18:02:00,
2013-04-22 12:05:00,75.4,15.0,30.02,SW,218,9.2,9.2,10,0.00,FEW,,0.00,954.0,WeatherDisplay:10.37,2013-04-22 18:05:00,
2013-04-22 12:06:00,75.1,17.0,30.02,WSW,239,6.9,6.9,11,0.00,FEW,,0.00,954.0,WeatherDisplay:10.37,2013-04-22 18:06:00,
2013-04-22 12:09:00,76.8,16.1,30.02,NW,326,6.9,6.9,10,0.00,FEW,,0.00,965.0,WeatherDisplay:10.37,2013-04-22 18:09:00,
2013-04-22 12:10:00,77.4,16.5,30.02,WSW,248,6.9,6.9,10,0.00,FEW,,0.00,962.0,WeatherDisplay:10.37,2013-04-22 18:10:00,
2013-04-22 12:11:00,77.8,14.4,30.02,WNW,283,18.4,18.4,9,0.00,FEW,,0.00,962.0,WeatherDisplay:10.37,2013-04-22 18:11:00,
2013-04-22 12:15:00,78.6,15.0,30.02,West,268,18.4,18.4,9,0.00,FEW,,0.00,963.0,WeatherDisplay:10.37,2013-04-22 18:15:00,
2013-04-22 12:16:00,78.2,14.7,30.02,NNW,335,11.5,11.5,9,0.00,FEW,,0.00,967.0,WeatherDisplay:10.37,2013-04-22 18:16:00,
2013-04-22 12:17:00,78.1,14.6,30.02,West,262,9.2,9.2,9,0.00,FEW,,0.00,965.0,WeatherDisplay:10.37,2013-04-22 18:17:00,
2013-04-22 12:19:00,78.3,14.8,30.02,WNW,284,10.4,10.4,9,0.00,FEW,,0.00,969.0,WeatherDisplay:10.37,2013-04-22 18:19:00,
2013-04-22 12:22:00,78.7,15.1,30.02,WSW,249,10.4,10.4,9,0.00,FEW,,0.00,974.0,WeatherDisplay:10.37,2013-04-22 18:22:00,
2013-04-22 12:24:00,78.4,14.8,30.01,WSW,253,5.8,5.8,9,0.00,FEW,,0.00,977.0,WeatherDisplay:10.37,2013-04-22 18:24:00,
2013-04-22 12:27:00,79.1,15.4,30.01,WSW,254,3.5,3.5,9,0.00,FEW,,0.00,979.0,WeatherDisplay:10.37,2013-04-22 18:27:00,
2013-04-22 12:29:00,79.3,15.5,30.01,North,8,6.9,6.9,9,0.00,FEW,,0.00,981.0,WeatherDisplay:10.37,2013-04-22 18:29:00,
2013-04-22 12:30:00,79.1,15.4,30.01,NNE,19,6.9,6.9,9,0.00,FEW,,0.00,979.0,WeatherDisplay:10.37,2013-04-22 18:30:00,
2013-04-22 12:32:00,79.2,15.5,30.00,NNE,27,3.5,3.5,9,0.00,FEW,,0.00,984.0,WeatherDisplay:10.37,2013-04-22 18:32:00,
2013-04-22 12:33:00,79.3,15.5,30.00,NE,50,4.6,4.6,9,0.00,FEW,,0.00,986.0,WeatherDisplay:10.37,2013-04-22 18:33:00,
2013-04-22 12:34:00,79.3,15.5,30.00,WNW,301,3.5,3.5,9,0.00,FEW,,0.00,986.0,WeatherDisplay:10.37,2013-04-22 18:34:00,
2013-04-22 12:37:00,80.0,16.1,30.00,WNW,283,6.9,6.9,9,0.00,FEW,,0.00,986.0,WeatherDisplay:10.37,2013-04-22 18:37:00,
2013-04-22 12:39:00,80.3,13.6,30.00,WSW,237,6.9,6.9,8,0.00,FEW,,0.00,988.0,WeatherDisplay:10.37,2013-04-22 18:39:00,
2013-04-22 12:40:00,80.7,16.6,30.00,WSW,237,6.9,6.9,9,0.00,FEW,,0.00,986.0,WeatherDisplay:10.37,2013-04-22 18:40:00,
2013-04-22 12:44:00,80.6,13.8,30.00,WSW,241,13.8,13.8,8,0.00,FEW,,0.00,993.0,WeatherDisplay:10.37,2013-04-22 18:44:00,
2013-04-22 12:45:00,80.9,14.0,30.00,SW,227,13.8,13.8,8,0.00,FEW,,0.00,993.0,WeatherDisplay:10.37,2013-04-22 18:45:00,
2013-04-22 12:47:00,80.7,13.9,30.00,WSW,254,8.1,8.1,8,0.00,FEW,,0.00,997.0,WeatherDisplay:10.37,2013-04-22 18:47:00,
2013-04-22 12:49:00,81.2,14.2,30.00,WNW,285,17.3,17.3,8,0.00,FEW,,0.00,1000.0,WeatherDisplay:10.37,2013-04-22 18:49:00,
2013-04-22 12:50:00,81.4,14.4,30.00,West,262,19.6,19.6,8,0.00,FEW,,0.00,1002.0,WeatherDisplay:10.37,2013-04-22 18:50:00,
2013-04-22 12:51:00,81.5,14.5,30.00,WSW,243,18.4,18.4,8,0.00,FEW,,0.00,1000.0,WeatherDisplay:10.37,2013-04-22 18:51:00,
2013-04-22 12:53:00,81.6,14.5,30.00,SW,227,13.8,13.8,8,0.00,FEW,,0.00,997.0,WeatherDisplay:10.37,2013-04-22 18:53:00,
2013-04-22 12:54:00,81.5,14.5,30.00,WSW,244,15.0,15.0,8,0.00,FEW,,0.00,997.0,WeatherDisplay:10.37,2013-04-22 18:54:00,
2013-04-22 12:56:00,81.8,14.7,29.99,WNW,289,13.8,13.8,8,0.00,FEW,,0.00,1000.0,WeatherDisplay:10.37,2013-04-22 18:56:00,
2013-04-22 12:57:00,81.6,14.5,29.99,West,267,12.7,12.7,8,0.00,FEW,,0.00,998.0,WeatherDisplay:10.37,2013-04-22 18:57:00,
2013-04-22 13:00:00,81.8,14.7,29.99,WNW,285,11.5,11.5,8,0.00,FEW,,0.00,1000.0,WeatherDisplay:10.37,2013-04-22 19:00:00,
2013-04-22 13:01:00,82.0,14.8,29.99,WNW,285,19.6,19.6,8,0.00,FEW,,0.00,997.0,WeatherDisplay:10.37,2013-04-22 19:01:00,
2013-04-22 13:03:00,81.8,14.7,29.99,West,281,15.0,15.0,8,0.00,FEW,,0.00,1000.0,WeatherDisplay:10.37,2013-04-22 19:03:00,
2013-04-22 13:06:00,81.8,14.7,29.99,WSW,248,11.5,11.5,8,0.00,FEW,,0.00,1005.0,WeatherDisplay:10.37,2013-04-22 19:06:00,
2013-04-22 13:08:00,82.3,12.0,29.98,WSW,249,15.0,15.0,7,0.00,FEW,,0.00,1007.0,WeatherDisplay:10.37,2013-04-22 19:08:00,
2013-04-22 13:09:00,82.7,12.3,29.99,West,264,11.5,11.5,7,0.00,FEW,,0.00,1004.0,WeatherDisplay:10.37,2013-04-22 19:09:00,
2013-04-22 13:11:00,82.5,12.2,29.98,SW,231,23.0,23.0,7,0.00,FEW,,0.00,1005.0,WeatherDisplay:10.37,2013-04-22 19:11:00,
2013-04-22 13:12:00,82.2,12.0,29.98,West,264,21.9,21.9,7,0.00,FEW,,0.00,1004.0,WeatherDisplay:10.37,2013-04-22 19:12:00,
2013-04-22 13:14:00,81.9,11.7,29.98,WSW,243,20.7,20.7,7,0.00,FEW,,0.00,1005.0,WeatherDisplay:10.37,2013-04-22 19:14:00,
2013-04-22 13:15:00,81.7,11.6,29.98,West,272,20.7,20.7,7,0.00,FEW,,0.00,1005.0,WeatherDisplay:10.37,2013-04-22 19:15:00,
2013-04-22 13:17:00,81.8,11.7,29.98,West,275,19.6,19.6,7,0.00,FEW,,0.00,1007.0,WeatherDisplay:10.37,2013-04-22 19:17:00,
2013-04-22 13:21:00,82.2,12.0,29.98,WSW,237,13.8,13.8,7,0.00,FEW,,0.00,1002.0,WeatherDisplay:10.37,2013-04-22 19:21:00,
2013-04-22 13:22:00,82.1,11.9,29.98,WSW,244,18.4,18.4,7,0.00,FEW,,0.00,1002.0,WeatherDisplay:10.37,2013-04-22 19:22:00,
2013-04-22 13:23:00,82.3,12.0,29.98,SW,232,16.1,16.1,7,0.00,FEW,,0.00,1005.0,WeatherDisplay:10.37,2013-04-22 19:23:00,
2013-04-22 13:24:00,82.4,12.1,29.97,WSW,249,10.4,10.4,7,0.00,FEW,,0.00,1007.0,WeatherDisplay:10.37,2013-04-22 19:24:00,
2013-04-22 13:26:00,82.2,12.0,29.98,WSW,248,16.1,16.1,7,0.00,FEW,,0.00,1009.0,WeatherDisplay:10.37,2013-04-22 19:26:00,
2013-04-22 13:28:00,82.3,12.0,29.98,NW,318,16.1,16.1,7,0.00,FEW,,0.00,1007.0,WeatherDisplay:10.37,2013-04-22 19:28:00,
2013-04-22 13:30:00,82.5,12.2,29.97,WSW,247,17.3,17.3,7,0.00,FEW,,0.00,1007.0,WeatherDisplay:10.37,2013-04-22 19:30:00,
2013-04-22 13:31:00,82.6,12.2,29.97,WSW,240,12.7,12.7,7,0.00,FEW,,0.00,1007.0,WeatherDisplay:10.37,2013-04-22 19:31:00,
2013-04-22 13:33:00,82.4,12.1,29.98,SW,214,19.6,19.6,7,0.00,FEW,,0.00,1009.0,WeatherDisplay:10.37,2013-04-22 19:33:00,
2013-04-22 13:35:00,82.1,11.9,29.97,West,265,15.0,15.0,7,0.00,FEW,,0.00,1002.0,WeatherDisplay:10.37,2013-04-22 19:35:00,
2013-04-22 13:36:00,82.3,12.0,29.97,SSW,211,17.3,17.3,7,0.00,FEW,,0.00,1002.0,WeatherDisplay:10.37,2013-04-22 19:36:00,
2013-04-22 13:38:00,82.5,12.2,29.97,WSW,252,10.4,10.4,7,0.00,FEW,,0.00,998.0,WeatherDisplay:10.37,2013-04-22 19:38:00,
2013-04-22 13:39:00,82.7,12.3,29.97,North,355,16.1,16.1,7,0.00,FEW,,0.00,998.0,WeatherDisplay:10.37,2013-04-22 19:39:00,
2013-04-22 13:40:00,82.3,12.0,29.97,WSW,241,19.6,19.6,7,0.00,FEW,,0.00,998.0,WeatherDisplay:10.37,2013-04-22 19:40:00,
2013-04-22 13:41:00,81.9,11.7,29.97,SW,215,19.6,19.6,7,0.00,FEW,,0.00,1000.0,WeatherDisplay:10.37,2013-04-22 19:41:00,
2013-04-22 13:45:00,81.3,14.3,29.97,WSW,241,17.3,17.3,8,0.00,FEW,,0.00,1004.0,WeatherDisplay:10.37,2013-04-22 19:45:00,
2013-04-22 13:48:00,81.5,11.4,29.97,SW,225,19.6,19.6,7,0.00,FEW,,0.00,998.0,WeatherDisplay:10.37,2013-04-22 19:48:00,
2013-04-22 13:49:00,81.5,11.4,29.97,SW,216,16.1,16.1,7,0.00,FEW,,0.00,997.0,WeatherDisplay:10.37,2013-04-22 19:49:00,
2013-04-22 13:50:00,81.8,11.7,29.97,West,270,9.2,9.2,7,0.00,FEW,,0.00,995.0,WeatherDisplay:10.37,2013-04-22 19:50:00,
2013-04-22 13:52:00,82.3,12.0,29.97,West,273,10.4,10.4,7,0.00,FEW,,0.00,997.0,WeatherDisplay:10.37,2013-04-22 19:52:00,
2013-04-22 13:53:00,82.6,12.2,29.97,SW,235,11.5,11.5,7,0.00,FEW,,0.00,1000.0,WeatherDisplay:10.37,2013-04-22 19:53:00,
2013-04-22 13:54:00,82.7,12.3,29.96,SSW,210,13.0,13.0,7,0.00,FEW,,0.00,1000.0,WeatherDisplay:10.37,2013-04-22 19:54:00,
2013-04-22 13:58:00,82.8,12.4,29.96,SW,224,19.6,19.6,7,0.00,FEW,,0.00,991.0,WeatherDisplay:10.37,2013-04-22 19:58:00,
2013-04-22 13:59:00,82.8,12.4,29.96,SW,235,19.6,19.6,7,0.00,FEW,,0.00,990.0,WeatherDisplay:10.37,2013-04-22 19:59:00,
2013-04-22 14:00:00,82.9,12.5,29.96,WSW,237,19.6,19.6,7,0.00,FEW,,0.00,988.0,WeatherDisplay:10.37,2013-04-22 20:00:00,
2013-04-22 14:02:00,83.1,12.6,29.96,WSW,237,16.1,16.1,7,0.00,FEW,,0.00,986.0,WeatherDisplay:10.37,2013-04-22 20:02:00,
2013-04-22 14:03:00,83.5,12.9,29.96,South,181,19.6,19.6,7,0.00,FEW,,0.00,984.0,WeatherDisplay:10.37,2013-04-22 20:03:00,
2013-04-22 14:06:00,83.4,12.8,29.96,WSW,253,13.8,13.8,7,0.00,FEW,,0.00,990.0,WeatherDisplay:10.37,2013-04-22 20:06:00,
2013-04-22 14:07:00,83.4,12.8,29.96,WSW,258,19.6,19.6,7,0.00,FEW,,0.00,988.0,WeatherDisplay:10.37,2013-04-22 20:07:00,
2013-04-22 14:08:00,83.3,12.8,29.96,WSW,241,12.7,12.7,7,0.00,FEW,,0.00,983.0,WeatherDisplay:10.37,2013-04-22 20:08:00,
2013-04-22 14:10:00,83.3,12.8,29.96,WSW,239,13.8,13.8,7,0.00,FEW,,0.00,979.0,WeatherDisplay:10.37,2013-04-22 20:10:00,
2013-04-22 14:11:00,83.1,12.6,29.96,SW,216,11.5,11.5,7,0.00,FEW,,0.00,984.0,WeatherDisplay:10.37,2013-04-22 20:11:00,
2013-04-22 14:12:00,83.1,12.6,29.95,WSW,242,20.7,20.7,7,0.00,FEW,,0.00,983.0,WeatherDisplay:10.37,2013-04-22 20:12:00,
2013-04-22 14:14:00,83.1,12.6,29.95,SW,236,9.2,9.2,7,0.00,FEW,,0.00,981.0,WeatherDisplay:10.37,2013-04-22 20:14:00,
2013-04-22 14:15:00,83.5,12.9,29.95,WSW,255,9.2,9.2,7,0.00,FEW,,0.00,979.0,WeatherDisplay:10.37,2013-04-22 20:15:00,
2013-04-22 14:17:00,83.3,12.8,29.95,SSW,197,23.0,23.0,7,0.00,FEW,,0.00,974.0,WeatherDisplay:10.37,2013-04-22 20:17:00,
2013-04-22 14:20:00,82.1,11.9,29.95,SW,216,19.6,19.6,7,0.00,FEW,,0.00,974.0,WeatherDisplay:10.37,2013-04-22 20:20:00,
2013-04-22 14:21:00,81.9,11.7,29.95,SSW,204,15.0,15.0,7,0.00,FEW,,0.00,979.0,WeatherDisplay:10.37,2013-04-22 20:21:00,
2013-04-22 14:22:00,81.7,11.6,29.95,SSW,199,11.5,11.5,7,0.00,FEW,,0.00,976.0,WeatherDisplay:10.37,2013-04-22 20:22:00,
2013-04-22 14:25:00,82.0,14.8,29.95,SSW,208,17.0,17.0,8,0.00,FEW,,0.00,970.0,WeatherDisplay:10.37,2013-04-22 20:25:00,
2013-04-22 14:26:00,82.5,12.2,29.95,SW,224,19.6,19.6,7,0.00,FEW,,0.00,969.0,WeatherDisplay:10.37,2013-04-22 20:26:00,
2013-04-22 14:28:00,83.2,12.7,29.95,WNW,286,25.3,25.3,7,0.00,FEW,,0.00,963.0,WeatherDisplay:10.37,2013-04-22 20:28:00,
2013-04-22 14:30:00,83.8,13.1,29.95,SW,223,13.8,16.3,7,0.00,FEW,,0.00,956.0,WeatherDisplay:10.37,2013-04-22 20:30:00,
2013-04-22 14:31:00,84.0,13.3,29.95,West,271,23.0,23.0,7,0.00,FEW,,0.00,954.0,WeatherDisplay:10.37,2013-04-22 20:31:00,
2013-04-22 14:32:00,84.0,13.3,29.95,West,278,16.1,16.1,7,0.00,FEW,,0.00,953.0,WeatherDisplay:10.37,2013-04-22 20:32:00,
2013-04-22 14:37:00,84.2,13.4,29.95,WSW,257,13.8,13.8,7,0.00,FEW,,0.00,946.0,WeatherDisplay:10.37,2013-04-22 20:37:00,
2013-04-22 14:38:00,84.3,13.5,29.94,West,260,16.1,16.1,7,0.00,FEW,,0.00,944.0,WeatherDisplay:10.37,2013-04-22 20:38:00,
2013-04-22 14:39:00,84.3,13.5,29.94,WSW,255,19.6,19.6,7,0.00,FEW,,0.00,940.0,WeatherDisplay:10.37,2013-04-22 20:39:00,
2013-04-22 14:41:00,84.2,13.4,29.95,WSW,242,19.6,19.6,7,0.00,FEW,,0.00,939.0,WeatherDisplay:10.37,2013-04-22 20:41:00,
2013-04-22 14:42:00,84.2,13.4,29.95,WSW,239,13.8,13.8,7,0.00,FEW,,0.00,937.0,WeatherDisplay:10.37,2013-04-22 20:42:00,
2013-04-22 14:47:00,83.7,13.0,29.94,SW,229,16.1,16.1,7,0.00,FEW,,0.00,933.0,WeatherDisplay:10.37,2013-04-22 20:47:00,
2013-04-22 14:48:00,83.5,12.9,29.94,SW,227,16.1,16.1,7,0.00,FEW,,0.00,932.0,WeatherDisplay:10.37,2013-04-22 20:48:00,
2013-04-22 14:51:00,83.7,13.0,29.94,SSW,211,6.9,6.9,7,0.00,FEW,,0.00,919.0,WeatherDisplay:10.37,2013-04-22 20:51:00,
2013-04-22 14:52:00,83.1,12.6,29.94,West,266,9.2,9.2,7,0.00,FEW,,0.00,921.0,WeatherDisplay:10.37,2013-04-22 20:52:00,
2013-04-22 14:54:00,82.5,12.2,29.94,West,260,15.0,15.0,7,0.00,FEW,,0.00,912.0,WeatherDisplay:10.37,2013-04-22 20:54:00,
2013-04-22 14:55:00,82.7,15.4,29.94,SW,221,9.2,9.2,8,0.00,FEW,,0.00,916.0,WeatherDisplay:10.37,2013-04-22 20:55:00,
2013-04-22 14:57:00,83.4,12.8,29.93,SSE,162,10.4,10.4,7,0.00,FEW,,0.00,907.0,WeatherDisplay:10.37,2013-04-22 20:57:00,
2013-04-22 15:01:00,83.0,15.6,29.94,West,280,11.0,11.0,8,0.00,FEW,,0.00,912.0,WeatherDisplay:10.37,2013-04-22 21:01:00,
2013-04-22 15:03:00,83.6,13.0,29.94,WSW,249,11.5,11.5,7,0.00,FEW,,0.00,914.0,WeatherDisplay:10.37,2013-04-22 21:03:00,
2013-04-22 15:04:00,83.4,12.8,29.94,South,190,18.4,18.4,7,0.00,FEW,,0.00,916.0,WeatherDisplay:10.37,2013-04-22 21:04:00,
2013-04-22 15:06:00,82.7,15.4,29.94,WSW,250,10.4,10.4,8,0.00,FEW,,0.00,905.0,WeatherDisplay:10.37,2013-04-22 21:06:00,
2013-04-22 15:09:00,84.1,13.3,29.93,South,189,11.5,11.5,7,0.00,FEW,,0.00,893.0,WeatherDisplay:10.37,2013-04-22 21:09:00,
2013-04-22 15:12:00,83.1,12.6,29.93,West,266,13.8,13.8,7,0.00,FEW,,0.00,891.0,WeatherDisplay:10.37,2013-04-22 21:12:00,
2013-04-22 15:13:00,83.2,12.7,29.93,SW,228,13.8,13.8,7,0.00,FEW,,0.00,893.0,WeatherDisplay:10.37,2013-04-22 21:13:00,
2013-04-22 15:14:00,83.2,12.7,29.93,SW,222,18.4,18.4,7,0.00,FEW,,0.00,889.0,WeatherDisplay:10.37,2013-04-22 21:14:00,
2013-04-22 15:18:00,82.7,12.3,29.93,SSW,201,15.0,15.0,7,0.00,FEW,,0.00,886.0,WeatherDisplay:10.37,2013-04-22 21:18:00,
2013-04-22 15:19:00,82.2,12.0,29.93,South,187,12.7,12.7,7,0.00,FEW,,0.00,886.0,WeatherDisplay:10.37,2013-04-22 21:19:00,
2013-04-22 15:22:00,81.7,14.6,29.92,SSW,202,4.6,4.6,8,0.00,FEW,,0.00,886.0,WeatherDisplay:10.37,2013-04-22 21:22:00,
2013-04-22 15:23:00,81.8,14.7,29.92,SW,215,11.5,11.5,8,0.00,FEW,,0.00,886.0,WeatherDisplay:10.37,2013-04-22 21:23:00,
2013-04-22 15:25:00,81.5,14.5,29.92,South,181,10.4,10.4,8,0.00,FEW,,0.00,914.0,WeatherDisplay:10.37,2013-04-22 21:25:00,
2013-04-22 15:26:00,81.4,14.4,29.92,SSE,147,5.8,5.8,8,0.00,FEW,,0.00,914.0,WeatherDisplay:10.37,2013-04-22 21:26:00,
2013-04-22 15:30:00,81.4,14.4,29.92,West,260,19.6,19.6,8,0.00,FEW,,0.00,176.0,WeatherDisplay:10.37,2013-04-22 21:30:00,
2013-04-22 15:31:00,82.0,14.8,29.92,WSW,247,11.5,11.5,8,0.00,FEW,,0.00,176.0,WeatherDisplay:10.37,2013-04-22 21:31:00,
2013-04-22 15:32:00,82.5,15.2,29.92,SW,219,11.5,11.5,8,0.00,FEW,,0.00,882.0,WeatherDisplay:10.37,2013-04-22 21:32:00,
2013-04-22 15:34:00,82.5,15.2,29.92,SSW,211,8.1,8.1,8,0.00,FEW,,0.00,896.0,WeatherDisplay:10.37,2013-04-22 21:34:00,
2013-04-22 15:37:00,83.7,13.0,29.91,WSW,252,10.4,10.4,7,0.00,FEW,,0.00,891.0,WeatherDisplay:10.37,2013-04-22 21:37:00,
2013-04-22 15:38:00,84.2,13.4,29.91,West,265,17.3,17.3,7,0.00,FEW,,0.00,882.0,WeatherDisplay:10.37,2013-04-22 21:38:00,
2013-04-22 15:39:00,84.4,13.6,29.91,WSW,238,17.3,17.3,7,0.00,FEW,,0.00,882.0,WeatherDisplay:10.37,2013-04-22 21:39:00,
2013-04-22 15:40:00,84.5,13.6,29.91,WSW,238,11.5,11.5,7,0.00,FEW,,0.00,882.0,WeatherDisplay:10.37,2013-04-22 21:40:00,
2013-04-22 15:41:00,84.1,13.3,29.91,SW,229,11.5,11.5,7,0.00,FEW,,0.00,137.0,WeatherDisplay:10.37,2013-04-22 21:41:00,
2013-04-22 15:44:00,82.7,12.3,29.91,SSW,200,13.8,13.8,7,0.00,FEW,,0.00,860.0,WeatherDisplay:10.37,2013-04-22 21:44:00,
2013-04-22 15:45:00,82.5,12.2,29.91,WSW,247,9.2,9.2,7,0.00,FEW,,0.00,844.0,WeatherDisplay:10.37,2013-04-22 21:45:00,
2013-04-22 15:46:00,82.9,15.5,29.91,WSW,242,11.5,11.5,8,0.00,FEW,,0.00,838.0,WeatherDisplay:10.37,2013-04-22 21:46:00,
2013-04-22 15:47:00,83.4,12.8,29.91,WSW,243,15.0,15.0,7,0.00,FEW,,0.00,819.0,WeatherDisplay:10.37,2013-04-22 21:47:00,
2013-04-22 15:49:00,84.0,13.3,29.91,SW,214,11.5,11.5,7,0.00,FEW,,0.00,823.0,WeatherDisplay:10.37,2013-04-22 21:49:00,
2013-04-22 15:51:00,83.8,13.1,29.91,SSW,200,8.1,8.1,7,0.00,FEW,,0.00,837.0,WeatherDisplay:10.37,2013-04-22 21:51:00,
2013-04-22 15:52:00,83.6,13.0,29.90,South,177,8.1,8.1,7,0.00,FEW,,0.00,846.0,WeatherDisplay:10.37,2013-04-22 21:52:00,
2013-04-22 15:54:00,83.2,12.7,29.90,SSW,210,12.7,12.7,7,0.00,FEW,,0.00,835.0,WeatherDisplay:10.37,2013-04-22 21:54:00,
2013-04-22 15:56:00,82.4,12.1,29.90,SW,220,19.6,19.6,7,0.00,FEW,,0.00,805.0,WeatherDisplay:10.37,2013-04-22 21:56:00,
2013-04-22 15:57:00,82.3,12.0,29.90,SW,214,17.3,17.3,7,0.00,FEW,,0.00,793.0,WeatherDisplay:10.37,2013-04-22 21:57:00,
2013-04-22 15:58:00,82.5,12.2,29.90,WSW,248,15.0,15.0,7,0.00,FEW,,0.00,788.0,WeatherDisplay:10.37,2013-04-22 21:58:00,
2013-04-22 16:01:00,84.1,13.3,29.90,SSW,205,16.1,16.1,7,0.00,FEW,,0.00,791.0,WeatherDisplay:10.37,2013-04-22 22:01:00,
2013-04-22 16:02:00,84.3,13.5,29.90,WSW,238,15.0,15.0,7,0.00,FEW,,0.00,800.0,WeatherDisplay:10.37,2013-04-22 22:02:00,
2013-04-22 16:04:00,84.7,10.3,29.90,WSW,252,13.8,13.8,6,0.00,FEW,,0.00,788.0,WeatherDisplay:10.37,2013-04-22 22:04:00,
2013-04-22 16:05:00,84.8,10.4,29.90,West,264,15.0,15.0,6,0.00,FEW,,0.00,779.0,WeatherDisplay:10.37,2013-04-22 22:05:00,
2013-04-22 16:07:00,85.0,10.5,29.90,WSW,241,12.7,12.7,6,0.00,FEW,,0.00,765.0,WeatherDisplay:10.37,2013-04-22 22:07:00,
2013-04-22 16:11:00,84.6,10.2,29.90,SSW,208,12.7,12.7,6,0.00,FEW,,0.00,742.0,WeatherDisplay:10.37,2013-04-22 22:11:00,
2013-04-22 16:12:00,84.1,9.9,29.90,SW,214,11.5,11.5,6,0.00,FEW,,0.00,737.0,WeatherDisplay:10.37,2013-04-22 22:12:00,
2013-04-22 16:13:00,83.7,9.6,29.90,SSW,202,17.3,17.3,6,0.00,FEW,,0.00,735.0,WeatherDisplay:10.37,2013-04-22 22:13:00,
2013-04-22 16:15:00,83.0,9.1,29.90,SW,223,12.7,12.7,6,0.00,FEW,,0.00,731.0,WeatherDisplay:10.37,2013-04-22 22:15:00,
2013-04-22 16:17:00,83.5,12.9,29.89,WSW,257,19.6,19.6,7,0.00,FEW,,0.00,724.0,WeatherDisplay:10.37,2013-04-22 22:17:00,
2013-04-22 16:19:00,84.2,9.9,29.90,SW,214,24.2,24.2,6,0.00,FEW,,0.00,717.0,WeatherDisplay:10.37,2013-04-22 22:19:00,
2013-04-22 16:21:00,83.9,9.7,29.89,WSW,253,11.5,11.5,6,0.00,FEW,,0.00,707.0,WeatherDisplay:10.37,2013-04-22 22:21:00,
2013-04-22 16:22:00,83.9,9.7,29.89,West,261,11.5,11.5,6,0.00,FEW,,0.00,705.0,WeatherDisplay:10.37,2013-04-22 22:22:00,
2013-04-22 16:26:00,84.4,10.1,29.89,WSW,239,17.3,17.3,6,0.00,FEW,,0.00,687.0,WeatherDisplay:10.37,2013-04-22 22:26:00,
2013-04-22 16:27:00,84.5,10.2,29.89,SW,235,13.8,13.8,6,0.00,FEW,,0.00,686.0,WeatherDisplay:10.37,2013-04-22 22:27:00,
2013-04-22 16:28:00,84.6,10.2,29.89,West,280,11.5,11.5,6,0.00,FEW,,0.00,684.0,WeatherDisplay:10.37,2013-04-22 22:28:00,
2013-04-22 16:29:00,84.7,10.3,29.89,SW,216,11.5,11.5,6,0.00,FEW,,0.00,679.0,WeatherDisplay:10.37,2013-04-22 22:29:00,
2013-04-22 16:32:00,84.2,9.9,29.89,WSW,248,20.7,20.7,6,0.00,FEW,,0.00,671.0,WeatherDisplay:10.37,2013-04-22 22:32:00,
2013-04-22 16:33:00,84.2,9.9,29.88,WSW,238,13.8,13.8,6,0.00,FEW,,0.00,671.0,WeatherDisplay:10.37,2013-04-22 22:33:00,
2013-04-22 16:35:00,84.3,10.0,29.89,WNW,301,17.3,17.3,6,0.00,FEW,,0.00,666.0,WeatherDisplay:10.37,2013-04-22 22:35:00,
2013-04-22 16:37:00,84.0,9.8,29.88,SW,218,26.5,26.5,6,0.00,FEW,,0.00,661.0,WeatherDisplay:10.37,2013-04-22 22:37:00,
2013-04-22 16:38:00,83.7,9.6,29.89,SSW,212,20.7,20.7,6,0.00,FEW,,0.00,649.0,WeatherDisplay:10.37,2013-04-22 22:38:00,
2013-04-22 16:39:00,83.8,9.6,29.88,SW,227,20.7,20.7,6,0.00,FEW,,0.00,645.0,WeatherDisplay:10.37,2013-04-22 22:39:00,
2013-04-22 16:41:00,84.0,9.8,29.89,WSW,241,15.0,15.0,6,0.00,FEW,,0.00,640.0,WeatherDisplay:10.37,2013-04-22 22:41:00,
2013-04-22 16:43:00,84.2,9.9,29.88,West,274,19.6,19.6,6,0.00,FEW,,0.00,631.0,WeatherDisplay:10.37,2013-04-22 22:43:00,
2013-04-22 16:45:00,84.1,9.9,29.88,SSW,211,16.1,16.1,6,0.00,FEW,,0.00,631.0,WeatherDisplay:10.37,2013-04-22 22:45:00,
2013-04-22 16:46:00,84.0,9.8,29.88,WSW,241,17.3,17.3,6,0.00,FEW,,0.00,628.0,WeatherDisplay:10.37,2013-04-22 22:46:00,
2013-04-22 16:47:00,84.0,9.8,29.88,WSW,258,11.5,11.5,6,0.00,FEW,,0.00,626.0,WeatherDisplay:10.37,2013-04-22 22:47:00,
2013-04-22 16:49:00,83.6,9.5,29.88,West,266,6.9,6.9,6,0.00,FEW,,0.00,612.0,WeatherDisplay:10.37,2013-04-22 22:49:00,
2013-04-22 16:51:00,83.7,9.6,29.88,West,270,11.5,11.5,6,0.00,FEW,,0.00,608.0,WeatherDisplay:10.37,2013-04-22 22:51:00,
2013-04-22 16:53:00,83.7,9.6,29.88,WSW,237,14.0,14.0,6,0.00,FEW,,0.00,598.0,WeatherDisplay:10.37,2013-04-22 22:53:00,
2013-04-22 16:54:00,83.7,9.6,29.88,SW,227,13.8,13.8,6,0.00,FEW,,0.00,598.0,WeatherDisplay:10.37,2013-04-22 22:54:00,
2013-04-22 16:56:00,84.1,9.9,29.88,SW,221,9.2,9.2,6,0.00,FEW,,0.00,589.0,WeatherDisplay:10.37,2013-04-22 22:56:00,
2013-04-22 16:57:00,84.2,9.9,29.88,SSW,196,17.3,17.3,6,0.00,FEW,,0.00,585.0,WeatherDisplay:10.37,2013-04-22 22:57:00,
2013-04-22 16:58:00,84.0,9.8,29.88,WSW,252,17.3,17.3,6,0.00,FEW,,0.00,587.0,WeatherDisplay:10.37,2013-04-22 22:58:00,
2013-04-22 17:00:00,84.0,9.8,29.88,WSW,249,20.7,20.7,6,0.00,FEW,,0.00,582.0,WeatherDisplay:10.37,2013-04-22 23:00:00,
2013-04-22 17:01:00,83.8,9.6,29.88,WSW,241,25.3,25.3,6,0.00,FEW,,0.00,575.0,WeatherDisplay:10.37,2013-04-22 23:01:00,
2013-04-22 17:03:00,83.5,9.4,29.87,WSW,244,19.6,19.6,6,0.00,FEW,,0.00,571.0,WeatherDisplay:10.37,2013-04-22 23:03:00,
2013-04-22 17:04:00,83.6,9.5,29.88,WSW,256,20.7,20.7,6,0.00,FEW,,0.00,568.0,WeatherDisplay:10.37,2013-04-22 23:04:00,
2013-04-22 17:06:00,83.5,9.4,29.87,South,191,20.7,20.7,6,0.00,FEW,,0.00,559.0,WeatherDisplay:10.37,2013-04-22 23:06:00,
2013-04-22 17:07:00,83.4,9.4,29.88,West,281,15.0,15.0,6,0.00,FEW,,0.00,555.0,WeatherDisplay:10.37,2013-04-22 23:07:00,
2013-04-22 17:09:00,83.3,9.3,29.87,WSW,249,19.6,19.6,6,0.00,FEW,,0.00,545.0,WeatherDisplay:10.37,2013-04-22 23:09:00,
2013-04-22 17:10:00,83.4,9.4,29.88,WSW,255,23.0,23.0,6,0.00,FEW,,0.00,540.0,WeatherDisplay:10.37,2013-04-22 23:10:00,
2013-04-22 17:12:00,83.3,9.3,29.88,SW,230,16.1,16.1,6,0.00,FEW,,0.00,529.0,WeatherDisplay:10.37,2013-04-22 23:12:00,
2013-04-22 17:13:00,83.3,9.3,29.88,West,270,11.5,11.5,6,0.00,FEW,,0.00,524.0,WeatherDisplay:10.37,2013-04-22 23:13:00,
2013-04-22 17:14:00,83.4,9.4,29.88,WSW,252,18.4,18.4,6,0.00,FEW,,0.00,520.0,WeatherDisplay:10.37,2013-04-22 23:14:00,
2013-04-22 17:18:00,83.2,9.2,29.87,West,260,17.3,17.3,6,0.00,FEW,,0.00,513.0,WeatherDisplay:10.37,2013-04-22 23:18:00,
2013-04-22 17:20:00,83.1,9.1,29.88,SW,233,18.4,18.4,6,0.00,FEW,,0.00,503.0,WeatherDisplay:10.37,2013-04-22 23:20:00,
2013-04-22 17:22:00,83.3,9.3,29.88,SW,227,10.4,10.4,6,0.00,FEW,,0.00,501.0,WeatherDisplay:10.37,2013-04-22 23:22:00,
2013-04-22 17:24:00,83.2,9.2,29.88,SW,224,21.9,21.9,6,0.00,FEW,,0.00,480.0,WeatherDisplay:10.37,2013-04-22 23:24:00,
2013-04-22 17:29:00,82.9,9.0,29.88,WNW,283,11.5,11.5,6,0.00,FEW,,0.00,469.0,WeatherDisplay:10.37,2013-04-22 23:29:00,
2013-04-22 17:30:00,83.1,9.1,29.88,SW,232,14.0,14.0,6,0.00,FEW,,0.00,464.0,WeatherDisplay:10.37,2013-04-22 23:30:00,
2013-04-22 17:31:00,83.1,9.1,29.88,South,185,18.4,18.4,6,0.00,FEW,,0.00,464.0,WeatherDisplay:10.37,2013-04-22 23:31:00,
2013-04-22 17:34:00,82.8,8.9,29.87,WSW,254,10.4,10.4,6,0.00,FEW,,0.00,454.0,WeatherDisplay:10.37,2013-04-22 23:34:00,
2013-04-22 17:35:00,83.0,9.1,29.87,West,276,10.4,10.4,6,0.00,FEW,,0.00,450.0,WeatherDisplay:10.37,2013-04-22 23:35:00,
2013-04-22 17:37:00,83.4,9.4,29.87,WSW,240,11.5,11.5,6,0.00,FEW,,0.00,439.0,WeatherDisplay:10.37,2013-04-22 23:37:00,
2013-04-22 17:39:00,83.4,9.4,29.87,West,266,18.4,18.4,6,0.00,FEW,,0.00,431.0,WeatherDisplay:10.37,2013-04-22 23:39:00,
2013-04-22 17:42:00,82.7,8.9,29.87,WSW,239,18.4,18.4,6,0.00,FEW,,0.00,424.0,WeatherDisplay:10.37,2013-04-22 23:42:00,
2013-04-22 17:43:00,82.7,8.9,29.87,WSW,237,12.7,12.7,6,0.00,FEW,,0.00,422.0,WeatherDisplay:10.37,2013-04-22 23:43:00,
2013-04-22 17:44:00,82.7,8.9,29.88,WSW,250,12.7,12.7,6,0.00,FEW,,0.00,417.0,WeatherDisplay:10.37,2013-04-22 23:44:00,
2013-04-22 17:48:00,82.6,8.8,29.87,WSW,244,17.3,17.3,6,0.00,FEW,,0.00,396.0,WeatherDisplay:10.37,2013-04-22 23:48:00,
2013-04-22 17:50:00,82.7,8.9,29.87,WSW,244,13.8,13.8,6,0.00,FEW,,0.00,392.0,WeatherDisplay:10.37,2013-04-22 23:50:00,
2013-04-22 17:51:00,82.7,8.9,29.87,West,268,13.8,13.8,6,0.00,FEW,,0.00,388.0,WeatherDisplay:10.37,2013-04-22 23:51:00,
2013-04-22 17:52:00,82.8,8.9,29.87,WSW,249,17.3,17.3,6,0.00,FEW,,0.00,387.0,WeatherDisplay:10.37,2013-04-22 23:52:00,
2013-04-22 17:54:00,82.8,8.9,29.87,WSW,250,20.7,20.7,6,0.00,FEW,,0.00,376.0,WeatherDisplay:10.37,2013-04-22 23:54:00,
2013-04-22 17:55:00,82.8,8.9,29.87,WSW,253,20.7,20.7,6,0.00,FEW,,0.00,373.0,WeatherDisplay:10.37,2013-04-22 23:55:00,
2013-04-22 17:56:00,82.6,8.8,29.88,SW,231,18.4,18.4,6,0.00,FEW,,0.00,373.0,WeatherDisplay:10.37,2013-04-22 23:56:00,
2013-04-22 17:57:00,82.3,8.6,29.88,WSW,257,18.4,18.4,6,0.00,FEW,,0.00,369.0,WeatherDisplay:10.37,2013-04-22 23:57:00,
2013-04-22 17:59:00,81.9,8.3,29.87,SW,229,18.4,18.4,6,0.00,FEW,,0.00,364.0,WeatherDisplay:10.37,2013-04-22 23:59:00,
2013-04-22 18:00:00,81.6,8.1,29.87,WSW,244,18.4,18.4,6,0.00,FEW,,0.00,360.0,WeatherDisplay:10.37,2013-04-23 00:00:00,
2013-04-22 18:02:00,81.3,7.8,29.87,WSW,247,8.1,8.1,6,0.00,FEW,,0.00,352.0,WeatherDisplay:10.37,2013-04-23 00:02:00,
2013-04-22 18:05:00,81.7,8.1,29.88,West,274,12.7,12.7,6,0.00,FEW,,0.00,334.0,WeatherDisplay:10.37,2013-04-23 00:05:00,
2013-04-22 18:06:00,81.6,8.1,29.87,WSW,251,15.0,15.0,6,0.00,FEW,,0.00,332.0,WeatherDisplay:10.37,2013-04-23 00:06:00,
2013-04-22 18:07:00,81.6,8.1,29.87,West,270,18.4,18.4,6,0.00,FEW,,0.00,327.0,WeatherDisplay:10.37,2013-04-23 00:07:00,
2013-04-22 18:09:00,81.5,8.0,29.88,SSW,212,18.4,18.4,6,0.00,FEW,,0.00,318.0,WeatherDisplay:10.37,2013-04-23 00:09:00,
2013-04-22 18:10:00,81.4,7.9,29.87,South,189,19.6,19.6,6,0.00,FEW,,0.00,316.0,WeatherDisplay:10.37,2013-04-23 00:10:00,
2013-04-22 18:14:00,81.1,7.7,29.87,WSW,239,17.3,17.3,6,0.00,FEW,,0.00,304.0,WeatherDisplay:10.37,2013-04-23 00:14:00,
2013-04-22 18:15:00,81.1,7.7,29.87,SW,232,19.6,19.6,6,0.00,FEW,,0.00,302.0,WeatherDisplay:10.37,2013-04-23 00:15:00,
2013-04-22 18:16:00,81.1,7.7,29.88,WNW,297,17.3,17.3,6,0.00,FEW,,0.00,295.0,WeatherDisplay:10.37,2013-04-23 00:16:00,
2013-04-22 18:17:00,81.1,7.7,29.88,SW,214,19.6,19.6,6,0.00,FEW,,0.00,290.0,WeatherDisplay:10.37,2013-04-23 00:17:00,
2013-04-22 18:19:00,81.0,7.6,29.88,SSW,209,19.6,19.6,6,0.00,FEW,,0.00,285.0,WeatherDisplay:10.37,2013-04-23 00:19:00,
2013-04-22 18:22:00,80.6,7.3,29.88,WSW,247,17.3,17.3,6,0.00,FEW,,0.00,269.0,WeatherDisplay:10.37,2013-04-23 00:22:00,
2013-04-22 18:24:00,80.6,7.3,29.88,WSW,238,13.8,13.8,6,0.00,FEW,,0.00,264.0,WeatherDisplay:10.37,2013-04-23 00:24:00,
2013-04-22 18:25:00,80.6,7.3,29.88,WSW,256,13.8,13.8,6,0.00,FEW,,0.00,262.0,WeatherDisplay:10.37,2013-04-23 00:25:00,
2013-04-22 18:26:00,80.7,7.4,29.88,South,181,17.3,17.3,6,0.00,FEW,,0.00,258.0,WeatherDisplay:10.37,2013-04-23 00:26:00,
2013-04-22 18:29:00,80.5,7.3,29.88,WSW,239,19.6,19.6,6,0.00,FEW,,0.00,246.0,WeatherDisplay:10.37,2013-04-23 00:29:00,
2013-04-22 18:30:00,80.5,7.3,29.88,WNW,300,19.6,19.6,6,0.00,FEW,,0.00,234.0,WeatherDisplay:10.37,2013-04-23 00:30:00,
2013-04-22 18:31:00,80.3,7.1,29.88,WSW,243,19.6,19.6,6,0.00,FEW,,0.00,236.0,WeatherDisplay:10.37,2013-04-23 00:31:00,
2013-04-22 18:34:00,80.0,6.9,29.88,WSW,249,18.4,18.4,6,0.00,FEW,,0.00,218.0,WeatherDisplay:10.37,2013-04-23 00:34:00,
2013-04-22 18:37:00,79.8,10.2,29.87,WSW,257,19.6,19.6,7,0.00,FEW,,0.00,207.0,WeatherDisplay:10.37,2013-04-23 00:37:00,
2013-04-22 18:38:00,79.8,10.2,29.88,West,280,19.6,19.6,7,0.00,FEW,,0.00,204.0,WeatherDisplay:10.37,2013-04-23 00:38:00,
2013-04-22 18:39:00,79.8,10.2,29.87,WSW,258,16.1,16.1,7,0.00,FEW,,0.00,197.0,WeatherDisplay:10.37,2013-04-23 00:39:00,
2013-04-22 18:41:00,79.8,10.2,29.87,WSW,239,12.7,12.7,7,0.00,FEW,,0.00,188.0,WeatherDisplay:10.37,2013-04-23 00:41:00,
2013-04-22 18:43:00,79.9,10.3,29.88,SW,231,13.8,13.8,7,0.00,FEW,,0.00,181.0,WeatherDisplay:10.37,2013-04-23 00:43:00,
2013-04-22 18:45:00,79.9,10.3,29.87,WNW,289,13.8,13.8,7,0.00,FEW,,0.00,172.0,WeatherDisplay:10.37,2013-04-23 00:45:00,
2013-04-22 18:46:00,79.9,10.3,29.87,SSW,208,16.1,16.1,7,0.00,FEW,,0.00,162.0,WeatherDisplay:10.37,2013-04-23 00:46:00,
2013-04-22 18:47:00,79.8,10.2,29.87,WSW,237,17.3,17.3,7,0.00,FEW,,0.00,162.0,WeatherDisplay:10.37,2013-04-23 00:47:00,
2013-04-22 18:50:00,79.5,10.0,29.88,WSW,244,19.6,19.6,7,0.00,FEW,,0.00,151.0,WeatherDisplay:10.37,2013-04-23 00:50:00,
2013-04-22 18:51:00,79.4,9.9,29.88,West,281,19.6,19.6,7,0.00,FEW,,0.00,144.0,WeatherDisplay:10.37,2013-04-23 00:51:00,
2013-04-22 18:55:00,79.1,9.7,29.87,WSW,243,20.7,20.7,7,0.00,FEW,,0.00,127.0,WeatherDisplay:10.37,2013-04-23 00:55:00,
2013-04-22 18:56:00,79.0,9.6,29.88,West,262,13.8,13.8,7,0.00,FEW,,0.00,123.0,WeatherDisplay:10.37,2013-04-23 00:56:00,
2013-04-22 18:57:00,78.9,9.5,29.87,WNW,282,13.8,13.8,7,0.00,FEW,,0.00,118.0,WeatherDisplay:10.37,2013-04-23 00:57:00,
2013-04-22 19:00:00,78.8,9.5,29.88,WSW,249,16.1,16.1,7,0.00,FEW,,0.00,107.0,WeatherDisplay:10.37,2013-04-23 01:00:00,
2013-04-22 19:02:00,78.7,9.4,29.88,WSW,251,15.0,15.0,7,0.00,FEW,,0.00,100.0,WeatherDisplay:10.37,2013-04-23 01:02:00,
2013-04-22 19:05:00,78.6,9.3,29.88,WSW,241,11.5,11.5,7,0.00,FEW,,0.00,88.0,WeatherDisplay:10.37,2013-04-23 01:05:00,
2013-04-22 19:06:00,78.5,9.2,29.88,WSW,245,10.4,10.4,7,0.00,FEW,,0.00,84.0,WeatherDisplay:10.37,2013-04-23 01:06:00,
2013-04-22 19:07:00,78.4,9.2,29.88,West,260,8.1,8.1,7,0.00,FEW,,0.00,81.0,WeatherDisplay:10.37,2013-04-23 01:07:00,
2013-04-22 19:11:00,78.0,8.9,29.88,WSW,250,9.2,9.2,7,0.00,FEW,,0.00,67.0,WeatherDisplay:10.37,2013-04-23 01:11:00,
2013-04-22 19:12:00,78.0,8.9,29.88,WSW,257,9.2,9.2,7,0.00,FEW,,0.00,65.0,WeatherDisplay:10.37,2013-04-23 01:12:00,
2013-04-22 19:13:00,77.9,8.8,29.87,West,267,12.7,12.7,7,0.00,FEW,,0.00,62.0,WeatherDisplay:10.37,2013-04-23 01:13:00,
2013-04-22 19:18:00,77.4,11.4,29.88,WSW,238,10.4,10.4,8,0.00,FEW,,0.00,47.0,WeatherDisplay:10.37,2013-04-23 01:18:00,
2013-04-22 19:19:00,77.3,11.3,29.87,WSW,241,11.5,11.5,8,0.00,FEW,,0.00,46.0,WeatherDisplay:10.37,2013-04-23 01:19:00,
2013-04-22 19:21:00,77.2,11.3,29.88,WSW,258,10.4,10.4,8,0.00,FEW,,0.00,39.0,WeatherDisplay:10.37,2013-04-23 01:21:00,
2013-04-22 19:24:00,77.1,11.2,29.87,WSW,254,10.4,10.4,8,0.00,FEW,,0.00,33.0,WeatherDisplay:10.37,2013-04-23 01:24:00,
2013-04-22 19:26:00,76.9,11.0,29.87,WSW,250,9.2,9.2,8,0.00,FEW,,0.00,28.0,WeatherDisplay:10.37,2013-04-23 01:26:00,
2013-04-22 19:27:00,76.9,11.0,29.88,West,264,5.8,5.8,8,0.00,FEW,,0.00,26.0,WeatherDisplay:10.37,2013-04-23 01:27:00,
2013-04-22 19:28:00,76.8,11.0,29.88,WSW,255,9.2,9.2,8,0.00,FEW,,0.00,25.0,WeatherDisplay:10.37,2013-04-23 01:28:00,
2013-04-22 19:29:00,76.7,10.9,29.88,WSW,245,9.2,9.2,8,0.00,FEW,,0.00,23.0,WeatherDisplay:10.37,2013-04-23 01:29:00,
2013-04-22 19:32:00,76.5,10.7,29.88,SW,234,9.2,9.2,8,0.00,FEW,,0.00,18.0,WeatherDisplay:10.37,2013-04-23 01:32:00,
2013-04-22 19:33:00,76.5,10.7,29.87,WSW,243,6.9,6.9,8,0.00,FEW,,0.00,16.0,WeatherDisplay:10.37,2013-04-23 01:33:00,
2013-04-22 19:36:00,76.2,10.5,29.87,SW,223,6.9,6.9,8,0.00,FEW,,0.00,14.0,WeatherDisplay:10.37,2013-04-23 01:36:00,
2013-04-22 19:37:00,76.1,10.4,29.87,SW,217,9.2,9.2,8,0.00,FEW,,0.00,12.0,WeatherDisplay:10.37,2013-04-23 01:37:00,
2013-04-22 19:39:00,75.9,10.3,29.87,WSW,238,6.9,6.9,8,0.00,FEW,,0.00,11.0,WeatherDisplay:10.37,2013-04-23 01:39:00,
2013-04-22 19:40:00,75.9,10.3,29.87,West,275,5.8,5.8,8,0.00,FEW,,0.00,9.0,WeatherDisplay:10.37,2013-04-23 01:40:00,
2013-04-22 19:43:00,75.7,10.2,29.87,WSW,257,5.8,5.8,8,0.00,FEW,,0.00,7.0,WeatherDisplay:10.37,2013-04-23 01:43:00,
2013-04-22 19:44:00,75.6,10.1,29.87,WSW,237,4.6,4.6,8,0.00,FEW,,0.00,7.0,WeatherDisplay:10.37,2013-04-23 01:44:00,
2013-04-22 19:45:00,75.5,10.0,29.87,WSW,246,4.6,4.6,8,0.00,FEW,,0.00,5.0,WeatherDisplay:10.37,2013-04-23 01:45:00,
2013-04-22 19:48:00,75.3,9.9,29.87,SW,233,4.6,4.6,8,0.00,FEW,,0.00,0.0,WeatherDisplay:10.37,2013-04-23 01:48:00,
2013-04-22 19:52:00,74.9,12.2,29.87,SW,231,4.6,4.6,9,0.00,FEW,,0.00,0.0,WeatherDisplay:10.37,2013-04-23 01:52:00,
2013-04-22 19:53:00,74.8,12.1,29.87,WSW,237,4.6,4.6,9,0.00,FEW,,0.00,0.0,WeatherDisplay:10.37,2013-04-23 01:53:00,
2013-04-22 19:54:00,74.7,12.1,29.87,SW,231,4.6,4.6,9,0.00,FEW,,0.00,0.0,WeatherDisplay:10.37,2013-04-23 01:54:00,
2013-04-22 19:55:00,74.6,12.0,29.87,WSW,242,4.6,4.6,9,0.00,FEW,,0.00,0.0,WeatherDisplay:10.37,2013-04-23 01:55:00,
2013-04-22 19:57:00,74.5,11.9,29.87,SW,235,3.5,3.5,9,0.00,FEW,,0.00,0.0,WeatherDisplay:10.37,2013-04-23 01:57:00,
2013-04-22 20:00:00,74.2,11.7,29.87,SW,230,3.5,3.5,9,0.00,FEW,,0.00,0.0,WeatherDisplay:10.37,2013-04-23 02:00:00,
2013-04-22 20:01:00,74.2,11.7,29.87,SW,230,3.5,3.5,9,0.00,FEW,,0.00,0.0,WeatherDisplay:10.37,2013-04-23 02:01:00,
2013-04-22 20:02:00,74.1,11.6,29.87,SW,230,2.3,2.3,9,0.00,FEW,,0.00,0.0,WeatherDisplay:10.37,2013-04-23 02:02:00,
2013-04-22 20:04:00,73.8,11.4,29.87,SW,230,2.3,2.3,9,0.00,FEW,,0.00,0.0,WeatherDisplay:10.37,2013-04-23 02:04:00,
2013-04-22 20:05:00,73.7,11.3,29.87,SW,230,1.1,1.1,9,0.00,FEW,,0.00,0.0,WeatherDisplay:10.37,2013-04-23 02:05:00,
2013-04-22 20:07:00,73.4,13.5,29.87,SW,230,3.5,3.5,10,0.00,FEW,,0.00,0.0,WeatherDisplay:10.37,2013-04-23 02:07:00,
2013-04-22 20:09:00,73.1,13.2,29.87,SW,230,3.5,3.5,10,0.00,FEW,,0.00,0.0,WeatherDisplay:10.37,2013-04-23 02:09:00,
2013-04-22 20:13:00,72.8,13.0,29.87,SW,230,3.5,3.5,10,0.00,FEW,,0.00,0.0,WeatherDisplay:10.37,2013-04-23 02:13:00,
2013-04-22 20:14:00,72.8,13.0,29.87,SW,227,4.6,4.6,10,0.00,FEW,,0.00,0.0,WeatherDisplay:10.37,2013-04-23 02:14:00,
2013-04-22 20:16:00,72.8,13.0,29.87,SW,221,3.5,3.5,10,0.00,FEW,,0.00,0.0,WeatherDisplay:10.37,2013-04-23 02:16:00,
2013-04-22 20:18:00,72.7,12.9,29.88,SW,216,3.5,3.5,10,0.00,FEW,,0.00,0.0,WeatherDisplay:10.37,2013-04-23 02:18:00,
2013-04-22 20:19:00,72.6,12.8,29.88,SW,216,3.5,3.5,10,0.00,FEW,,0.00,0.0,WeatherDisplay:10.37,2013-04-23 02:19:00,
2013-04-22 20:21:00,72.4,12.7,29.88,SW,216,3.5,3.5,10,0.00,SCT,,0.00,0.0,WeatherDisplay:10.37,2013-04-23 02:21:00,
2013-04-22 20:22:00,72.3,12.6,29.88,SW,216,3.5,3.5,10,0.00,SCT,,0.00,0.0,WeatherDisplay:10.37,2013-04-23 02:22:00,
2013-04-22 20:23:00,72.1,12.5,29.88,SSW,210,3.5,3.5,10,0.00,SCT,,0.00,0.0,WeatherDisplay:10.37,2013-04-23 02:23:00,
2013-04-22 20:27:00,71.8,12.2,29.88,SW,227,4.6,4.6,10,0.00,SCT,,0.00,0.0,WeatherDisplay:10.37,2013-04-23 02:27:00,
2013-04-22 20:28:00,71.7,12.2,29.88,SW,228,3.5,3.5,10,0.00,SCT,,0.00,0.0,WeatherDisplay:10.37,2013-04-23 02:28:00,
2013-04-22 20:31:00,71.6,12.1,29.88,SW,222,4.6,4.6,10,0.00,SCT,,0.00,0.0,WeatherDisplay:10.37,2013-04-23 02:31:00,
2013-04-22 20:32:00,71.6,12.1,29.88,SW,227,4.6,4.6,10,0.00,SCT,,0.00,0.0,WeatherDisplay:10.37,2013-04-23 02:32:00,
2013-04-22 20:34:00,71.6,12.1,29.88,SW,225,6.9,6.9,10,0.00,SCT,,0.00,0.0,WeatherDisplay:10.37,2013-04-23 02:34:00,
2013-04-22 20:36:00,71.6,9.7,29.88,WSW,247,4.6,4.6,9,0.00,SCT,,0.00,0.0,WeatherDisplay:10.37,2013-04-23 02:36:00,
2013-04-22 20:37:00,71.6,9.7,29.88,SW,227,5.8,5.8,9,0.00,SCT,,0.00,0.0,WeatherDisplay:10.37,2013-04-23 02:37:00,
2013-04-22 20:39:00,71.6,9.7,29.88,SW,228,9.2,9.2,9,0.00,SCT,,0.00,0.0,WeatherDisplay:10.37,2013-04-23 02:39:00,
2013-04-22 20:40:00,71.5,9.6,29.88,WSW,241,9.2,9.2,9,0.00,SCT,,0.00,0.0,WeatherDisplay:10.37,2013-04-23 02:40:00,
2013-04-22 20:41:00,71.5,9.6,29.88,SW,223,6.9,6.9,9,0.00,SCT,,0.00,0.0,WeatherDisplay:10.37,2013-04-23 02:41:00,
2013-04-22 20:43:00,71.3,9.5,29.88,SW,217,9.2,9.2,9,0.00,SCT,,0.00,0.0,WeatherDisplay:10.37,2013-04-23 02:43:00,
2013-04-22 20:44:00,71.2,9.4,29.88,SW,226,6.9,6.9,9,0.00,SCT,,0.00,0.0,WeatherDisplay:10.37,2013-04-23 02:44:00,
2013-04-22 20:47:00,71.0,9.3,29.88,SSW,212,6.9,6.9,9,0.00,SCT,,0.00,0.0,WeatherDisplay:10.37,2013-04-23 02:47:00,
2013-04-22 20:48:00,70.9,9.2,29.88,WSW,242,9.2,9.2,9,0.00,SCT,,0.00,0.0,WeatherDisplay:10.37,2013-04-23 02:48:00,
2013-04-22 20:49:00,70.8,11.5,29.88,SW,234,6.9,6.9,10,0.00,SCT,,0.00,0.0,WeatherDisplay:10.37,2013-04-23 02:49:00,
2013-04-22 20:51:00,70.6,11.3,29.88,SW,227,10.4,10.4,10,0.00,SCT,,0.00,0.0,WeatherDisplay:10.37,2013-04-23 02:51:00,
2013-04-22 20:53:00,70.5,11.2,29.88,SSW,194,9.2,9.2,10,0.00,SCT,,0.00,0.0,WeatherDisplay:10.37,2013-04-23 02:53:00,
2013-04-22 20:54:00,70.4,11.2,29.89,SW,214,6.9,6.9,10,0.00,SCT,,0.00,0.0,WeatherDisplay:10.37,2013-04-23 02:54:00,
2013-04-22 20:57:00,70.2,11.0,29.89,South,188,9.2,9.2,10,0.00,SCT,,0.00,0.0,WeatherDisplay:10.37,2013-04-23 02:57:00,
2013-04-22 20:58:00,70.1,10.9,29.89,WSW,237,9.2,9.2,10,0.00,SCT,,0.00,0.0,WeatherDisplay:10.37,2013-04-23 02:58:00,
2013-04-22 20:59:00,70.1,10.9,29.89,SW,229,11.5,11.5,10,0.00,SCT,,0.00,0.0,WeatherDisplay:10.37,2013-04-23 02:59:00,
2013-04-22 21:04:00,69.8,10.7,29.89,SW,218,8.1,8.1,10,0.00,SCT,,0.00,0.0,WeatherDisplay:10.37,2013-04-23 03:04:00,
2013-04-22 21:05:00,69.8,10.7,29.89,WSW,242,8.1,8.1,10,0.00,SCT,,0.00,0.0,WeatherDisplay:10.37,2013-04-23 03:05:00,
2013-04-22 21:06:00,69.8,10.7,29.89,SW,221,8.1,8.1,10,0.00,SCT,,0.00,0.0,WeatherDisplay:10.37,2013-04-23 03:06:00,
2013-04-22 21:07:00,69.8,10.7,29.89,SW,235,10.4,10.4,10,0.00,SCT,,0.00,0.0,WeatherDisplay:10.37,2013-04-23 03:07:00,
2013-04-22 21:08:00,69.8,10.7,29.89,SSW,202,9.2,9.2,10,0.00,SCT,,0.00,0.0,WeatherDisplay:10.37,2013-04-23 03:08:00,
2013-04-22 21:11:00,69.9,10.8,29.89,SSW,211,8.1,8.1,10,0.00,FEW,,0.00,0.0,WeatherDisplay:10.37,2013-04-23 03:11:00,
2013-04-22 21:12:00,69.9,10.8,29.89,SW,220,8.1,8.1,10,0.00,FEW,,0.00,0.0,WeatherDisplay:10.37,2013-04-23 03:12:00,
2013-04-22 21:14:00,69.9,10.8,29.89,SSW,207,8.1,8.1,10,0.00,FEW,,0.00,0.0,WeatherDisplay:10.37,2013-04-23 03:14:00,
2013-04-22 21:15:00,69.9,10.8,29.89,SSW,195,8.1,8.1,10,0.00,FEW,,0.00,0.0,WeatherDisplay:10.37,2013-04-23 03:15:00,
2013-04-22 21:19:00,69.7,10.6,29.89,SSW,213,9.2,9.2,10,0.00,FEW,,0.00,0.0,WeatherDisplay:10.37,2013-04-23 03:19:00,
2013-04-22 21:20:00,69.7,10.6,29.89,SSW,212,9.2,9.2,10,0.00,FEW,,0.00,0.0,WeatherDisplay:10.37,2013-04-23 03:20:00,
2013-04-22 21:22:00,69.7,10.6,29.90,West,262,8.1,8.1,10,0.00,FEW,,0.00,0.0,WeatherDisplay:10.37,2013-04-23 03:22:00,
2013-04-22 21:23:00,69.7,10.6,29.89,SW,218,9.2,9.2,10,0.00,FEW,,0.00,0.0,WeatherDisplay:10.37,2013-04-23 03:23:00,
2013-04-22 21:26:00,69.6,10.5,29.90,SW,214,8.1,8.1,10,0.00,FEW,,0.00,0.0,WeatherDisplay:10.37,2013-04-23 03:26:00,
2013-04-22 21:27:00,69.5,10.5,29.90,South,186,11.5,11.5,10,0.00,FEW,,0.00,0.0,WeatherDisplay:10.37,2013-04-23 03:27:00,
2013-04-22 21:29:00,69.3,10.3,29.90,SSW,208,9.2,9.2,10,0.00,FEW,,0.00,0.0,WeatherDisplay:10.37,2013-04-23 03:29:00,
2013-04-22 21:31:00,69.1,10.2,29.90,SSW,211,8.1,8.1,10,0.00,FEW,,0.00,0.0,WeatherDisplay:10.37,2013-04-23 03:31:00,
2013-04-22 21:32:00,69.1,10.2,29.90,SW,216,9.2,9.2,10,0.00,FEW,,0.00,0.0,WeatherDisplay:10.37,2013-04-23 03:32:00,
2013-04-22 21:33:00,69.0,10.1,29.90,SW,224,9.2,9.2,10,0.00,FEW,,0.00,0.0,WeatherDisplay:10.37,2013-04-23 03:33:00,
2013-04-22 21:36:00,68.9,10.0,29.90,SW,221,6.9,6.9,10,0.00,FEW,,0.00,0.0,WeatherDisplay:10.37,2013-04-23 03:36:00,
2013-04-22 21:38:00,68.8,9.9,29.90,South,188,11.5,11.5,10,0.00,FEW,,0.00,0.0,WeatherDisplay:10.37,2013-04-23 03:38:00,
2013-04-22 21:39:00,68.8,9.9,29.90,SSW,197,9.2,9.2,10,0.00,FEW,,0.00,0.0,WeatherDisplay:10.37,2013-04-23 03:39:00,
2013-04-22 21:41:00,68.8,9.9,29.90,SW,217,9.2,9.2,10,0.00,FEW,,0.00,0.0,WeatherDisplay:10.37,2013-04-23 03:41:00,
2013-04-22 21:43:00,68.7,9.9,29.90,SW,229,11.5,11.5,10,0.00,FEW,,0.00,0.0,WeatherDisplay:10.37,2013-04-23 03:43:00,
2013-04-22 21:44:00,68.7,9.9,29.90,SW,221,9.2,9.2,10,0.00,FEW,,0.00,0.0,WeatherDisplay:10.37,2013-04-23 03:44:00,
2013-04-22 21:47:00,68.5,9.7,29.90,SW,227,6.9,6.9,10,0.00,FEW,,0.00,0.0,WeatherDisplay:10.37,2013-04-23 03:47:00,
2013-04-22 21:48:00,68.5,9.7,29.90,SW,229,8.1,8.1,10,0.00,FEW,,0.00,0.0,WeatherDisplay:10.37,2013-04-23 03:48:00,
2013-04-22 21:51:00,68.4,9.6,29.90,WSW,244,8.1,8.1,10,0.00,FEW,,0.00,0.0,WeatherDisplay:10.37,2013-04-23 03:51:00,
2013-04-22 21:55:00,68.3,9.5,29.91,WSW,239,9.2,9.2,10,0.00,FEW,,0.00,0.0,WeatherDisplay:10.37,2013-04-23 03:55:00,
2013-04-22 21:56:00,68.2,11.6,29.91,SW,217,11.5,11.5,11,0.00,FEW,,0.00,0.0,WeatherDisplay:10.37,2013-04-23 03:56:00,
2013-04-22 21:58:00,68.1,9.4,29.91,SW,232,11.5,11.5,10,0.00,FEW,,0.00,0.0,WeatherDisplay:10.37,2013-04-23 03:58:00,
2013-04-22 21:59:00,68.1,11.5,29.91,SW,228,9.2,9.2,11,0.00,FEW,,0.00,0.0,WeatherDisplay:10.37,2013-04-23 03:59:00,
2013-04-22 22:00:00,68.1,11.5,29.91,WSW,252,9.2,9.2,11,0.00,FEW,,0.00,0.0,WeatherDisplay:10.37,2013-04-23 04:00:00,
2013-04-22 22:01:00,68.0,11.5,29.91,WSW,237,8.1,8.1,11,0.00,FEW,,0.00,0.0,WeatherDisplay:10.37,2013-04-23 04:01:00,
2013-04-22 22:02:00,67.9,11.4,29.91,WSW,237,10.4,10.4,11,0.00,FEW,,0.00,0.0,WeatherDisplay:10.37,2013-04-23 04:02:00,
2013-04-22 22:03:00,67.9,11.4,29.91,WSW,237,8.1,8.1,11,0.00,FEW,,0.00,0.0,WeatherDisplay:10.37,2013-04-23 04:03:00,
2013-04-22 22:04:00,67.8,11.3,29.91,WSW,256,11.5,11.5,11,0.00,FEW,,0.00,0.0,WeatherDisplay:10.37,2013-04-23 04:04:00,
2013-04-22 22:09:00,67.6,11.1,29.91,South,176,10.4,10.4,11,0.00,FEW,,0.00,0.0,WeatherDisplay:10.37,2013-04-23 04:09:00,
2013-04-22 22:10:00,67.6,11.1,29.91,SW,227,10.4,10.4,11,0.00,FEW,,0.00,0.0,WeatherDisplay:10.37,2013-04-23 04:10:00,
2013-04-22 22:12:00,67.6,11.1,29.91,SSW,193,11.5,11.5,11,0.00,FEW,,0.00,0.0,WeatherDisplay:10.37,2013-04-23 04:12:00,
2013-04-22 22:13:00,67.6,11.1,29.91,WSW,242,10.4,10.4,11,0.00,FEW,,0.00,0.0,WeatherDisplay:10.37,2013-04-23 04:13:00,
2013-04-22 22:18:00,67.7,11.2,29.91,WSW,237,10.4,10.4,11,0.00,FEW,,0.00,0.0,WeatherDisplay:10.37,2013-04-23 04:18:00,
2013-04-22 22:19:00,67.8,11.3,29.91,WSW,239,8.1,8.1,11,0.00,FEW,,0.00,0.0,WeatherDisplay:10.37,2013-04-23 04:19:00,
2013-04-22 22:20:00,67.8,11.3,29.91,SW,227,8.1,8.1,11,0.00,FEW,,0.00,0.0,WeatherDisplay:10.37,2013-04-23 04:20:00,
2013-04-22 22:23:00,67.5,11.1,29.91,SW,227,10.4,10.4,11,0.00,FEW,,0.00,0.0,WeatherDisplay:10.37,2013-04-23 04:23:00,
2013-04-22 22:25:00,67.5,11.1,29.91,SW,221,11.5,11.5,11,0.00,FEW,,0.00,0.0,WeatherDisplay:10.37,2013-04-23 04:25:00,
2013-04-22 22:27:00,67.4,11.0,29.91,SW,231,10.4,10.4,11,0.00,FEW,,0.00,0.0,WeatherDisplay:10.37,2013-04-23 04:27:00,
2013-04-22 22:28:00,67.3,10.9,29.91,SSW,207,11.5,11.5,11,0.00,FEW,,0.00,0.0,WeatherDisplay:10.37,2013-04-23 04:28:00,
2013-04-22 22:30:00,67.4,11.0,29.91,SW,229,12.7,12.7,11,0.00,FEW,,0.00,0.0,WeatherDisplay:10.37,2013-04-23 04:30:00,
2013-04-22 22:33:00,67.4,11.0,29.91,WSW,239,11.5,11.5,11,0.00,FEW,,0.00,0.0,WeatherDisplay:10.37,2013-04-23 04:33:00,
2013-04-22 22:34:00,67.4,11.0,29.91,SW,223,11.5,11.5,11,0.00,FEW,,0.00,0.0,WeatherDisplay:10.37,2013-04-23 04:34:00,
2013-04-22 22:35:00,67.4,11.0,29.91,SW,234,15.0,15.0,11,0.00,FEW,,0.00,0.0,WeatherDisplay:10.37,2013-04-23 04:35:00,
2013-04-22 22:37:00,67.4,13.0,29.91,SW,219,12.0,12.0,12,0.00,FEW,,0.00,0.0,WeatherDisplay:10.37,2013-04-23 04:37:00,
2013-04-22 22:38:00,67.4,13.0,29.91,SW,233,17.3,17.3,12,0.00,FEW,,0.00,0.0,WeatherDisplay:10.37,2013-04-23 04:38:00,
2013-04-22 22:40:00,67.5,11.1,29.91,SSW,208,15.0,15.0,11,0.00,FEW,,0.00,0.0,WeatherDisplay:10.37,2013-04-23 04:40:00,
2013-04-22 22:42:00,67.6,13.1,29.91,SW,233,15.0,15.0,12,0.00,FEW,,0.00,0.0,WeatherDisplay:10.37,2013-04-23 04:42:00,
2013-04-22 22:43:00,67.6,13.1,29.91,WSW,248,11.5,11.5,12,0.00,FEW,,0.00,0.0,WeatherDisplay:10.37,2013-04-23 04:43:00,
2013-04-22 22:45:00,67.7,13.2,29.91,SW,222,15.0,15.0,12,0.00,FEW,,0.00,0.0,WeatherDisplay:10.37,2013-04-23 04:45:00,
2013-04-22 22:46:00,67.8,13.3,29.91,SW,233,11.5,11.5,12,0.00,FEW,,0.00,0.0,WeatherDisplay:10.37,2013-04-23 04:46:00,
2013-04-22 22:47:00,67.8,13.3,29.91,SW,221,11.5,11.5,12,0.00,FEW,,0.00,0.0,WeatherDisplay:10.37,2013-04-23 04:47:00,
2013-04-22 22:52:00,68.0,13.4,29.91,SSW,212,13.8,13.8,12,0.00,FEW,,0.00,0.0,WeatherDisplay:10.37,2013-04-23 04:52:00,
2013-04-22 22:53:00,68.0,13.4,29.91,SW,218,13.8,13.8,12,0.00,FEW,,0.00,0.0,WeatherDisplay:10.37,2013-04-23 04:53:00,
2013-04-22 22:55:00,68.1,13.5,29.91,SSW,209,17.3,17.3,12,0.00,FEW,,0.00,0.0,WeatherDisplay:10.37,2013-04-23 04:55:00,
2013-04-22 22:58:00,68.2,13.6,29.91,SW,227,19.6,19.6,12,0.00,FEW,,0.00,0.0,WeatherDisplay:10.37,2013-04-23 04:58:00,
2013-04-22 23:00:00,68.3,13.7,29.91,SW,224,13.8,13.8,12,0.00,FEW,,0.00,0.0,WeatherDisplay:10.37,2013-04-23 05:00:00,
2013-04-22 23:03:00,68.3,13.7,29.91,SW,222,15.0,15.0,12,0.00,FEW,,0.00,0.0,WeatherDisplay:10.37,2013-04-23 05:03:00,
2013-04-22 23:04:00,68.4,13.7,29.91,SW,224,16.1,16.1,12,0.00,FEW,,0.00,0.0,WeatherDisplay:10.37,2013-04-23 05:04:00,
2013-04-22 23:05:00,68.5,13.8,29.91,SW,215,16.1,16.1,12,0.00,FEW,,0.00,0.0,WeatherDisplay:10.37,2013-04-23 05:05:00,
2013-04-22 23:06:00,68.6,13.9,29.91,SW,233,16.1,16.1,12,0.00,FEW,,0.00,0.0,WeatherDisplay:10.37,2013-04-23 05:06:00,
2013-04-22 23:07:00,68.6,13.9,29.91,SW,225,20.7,20.7,12,0.00,FEW,,0.00,0.0,WeatherDisplay:10.37,2013-04-23 05:07:00,
2013-04-22 23:10:00,68.7,14.0,29.91,WSW,242,12.7,12.7,12,0.00,FEW,,0.00,0.0,WeatherDisplay:10.37,2013-04-23 05:10:00,
2013-04-22 23:12:00,68.6,13.9,29.91,SW,227,11.5,11.5,12,0.00,FEW,,0.00,0.0,WeatherDisplay:10.37,2013-04-23 05:12:00,
2013-04-22 23:15:00,68.4,13.7,29.91,WSW,242,15.0,15.0,12,0.00,FEW,,0.00,0.0,WeatherDisplay:10.37,2013-04-23 05:15:00,
2013-04-22 23:17:00,68.3,15.5,29.91,SW,223,15.0,15.0,13,0.00,FEW,,0.00,0.0,WeatherDisplay:10.37,2013-04-23 05:17:00,
2013-04-22 23:19:00,68.1,15.3,29.91,SW,230,13.8,13.8,13,0.00,FEW,,0.00,0.0,WeatherDisplay:10.37,2013-04-23 05:19:00,
2013-04-22 23:21:00,68.0,15.3,29.91,SW,222,16.1,16.1,13,0.00,FEW,,0.00,0.0,WeatherDisplay:10.37,2013-04-23 05:21:00,
2013-04-22 23:23:00,67.9,15.2,29.91,WSW,248,18.4,18.4,13,0.00,FEW,,0.00,0.0,WeatherDisplay:10.37,2013-04-23 05:23:00,
2013-04-22 23:24:00,67.8,15.1,29.91,WSW,241,16.1,16.1,13,0.00,FEW,,0.00,0.0,WeatherDisplay:10.37,2013-04-23 05:24:00,
2013-04-22 23:26:00,67.8,15.1,29.91,SW,229,17.3,17.3,13,0.00,FEW,,0.00,0.0,WeatherDisplay:10.37,2013-04-23 05:26:00,
2013-04-22 23:27:00,67.8,15.1,29.91,SSW,209,16.1,16.1,13,0.00,FEW,,0.00,0.0,WeatherDisplay:10.37,2013-04-23 05:27:00,
2013-04-22 23:29:00,67.7,15.0,29.91,SW,232,17.3,17.3,13,0.00,FEW,,0.00,0.0,WeatherDisplay:10.37,2013-04-23 05:29:00,
2013-04-22 23:30:00,67.8,15.1,29.91,SW,218,17.3,17.3,13,0.00,FEW,,0.00,0.0,WeatherDisplay:10.37,2013-04-23 05:30:00,
2013-04-22 23:31:00,67.7,15.0,29.91,SW,220,13.8,13.8,13,0.00,FEW,,0.00,0.0,WeatherDisplay:10.37,2013-04-23 05:31:00,
2013-04-22 23:34:00,67.6,14.9,29.91,SSW,202,16.1,16.1,13,0.00,FEW,,0.00,0.0,WeatherDisplay:10.37,2013-04-23 05:34:00,
2013-04-22 23:36:00,67.5,14.9,29.91,WSW,242,17.3,17.3,13,0.00,FEW,,0.00,0.0,WeatherDisplay:10.37,2013-04-23 05:36:00,
2013-04-22 23:38:00,67.4,14.8,29.91,SW,217,18.4,18.4,13,0.00,FEW,,0.00,0.0,WeatherDisplay:10.37,2013-04-23 05:38:00,
2013-04-22 23:39:00,67.4,14.8,29.91,WSW,243,18.4,18.4,13,0.00,FEW,,0.00,0.0,WeatherDisplay:10.37,2013-04-23 05:39:00,
2013-04-22 23:41:00,67.4,14.8,29.91,West,261,19.6,19.6,13,0.00,FEW,,0.00,0.0,WeatherDisplay:10.37,2013-04-23 05:41:00,
2013-04-22 23:42:00,67.4,14.8,29.91,SW,218,17.3,17.3,13,0.00,FEW,,0.00,0.0,WeatherDisplay:10.37,2013-04-23 05:42:00,
2013-04-22 23:43:00,67.4,14.8,29.91,West,263,20.7,20.7,13,0.00,FEW,,0.00,0.0,WeatherDisplay:10.37,2013-04-23 05:43:00,
2013-04-22 23:44:00,67.4,14.8,29.91,WSW,241,17.3,17.3,13,0.00,FEW,,0.00,0.0,WeatherDisplay:10.37,2013-04-23 05:44:00,
2013-04-22 23:48:00,67.2,16.3,29.91,SW,227,12.7,12.7,14,0.00,FEW,,0.00,0.0,WeatherDisplay:10.37,2013-04-23 05:48:00,
2013-04-22 23:49:00,67.2,16.3,29.91,SW,231,15.0,15.0,14,0.00,FEW,,0.00,0.0,WeatherDisplay:10.37,2013-04-23 05:49:00,
2013-04-22 23:53:00,67.0,16.2,29.91,SSW,201,11.5,11.5,14,0.00,FEW,,0.00,0.0,WeatherDisplay:10.37,2013-04-23 05:53:00,
2013-04-22 23:54:00,67.0,16.2,29.91,SW,220,19.6,19.6,14,0.00,FEW,,0.00,0.0,WeatherDisplay:10.37,2013-04-23 05:54:00,
2013-04-22 23:58:00,66.8,16.0,29.91,WSW,250,12.7,12.7,14,0.00,FEW,,0.00,0.0,WeatherDisplay:10.37,2013-04-23 05:58:00,
2013-04-22 23:59:00,66.7,15.9,29.91,SW,229,15.0,15.0,14,0.00,FEW,,0.00,0.0,WeatherDisplay:10.37,2013-04-23 05:59:00,